Time,TemperatureF,DewpointF,PressureIn,WindDirection,WindDirectionDegrees,WindSpeedMPH,WindSpeedGustMPH,Humidity,HourlyPrecipIn,Conditions,Clouds,dailyrainin,SoftwareType,DateUTC
2013-02-08 00:01:00,18.0,-1.3,30.57,South,172,0.0,1.0,42,0.00,,,0.00,Wunderground v.1.15,2013-02-08 05:01:00,
2013-02-08 00:02:00,18.0,-1.3,30.57,South,172,0.0,1.0,42,0.00,,,0.00,Wunderground v.1.15,2013-02-08 05:02:00,
2013-02-08 00:03:00,18.0,-0.8,30.57,South,172,0.0,1.0,43,0.00,,,0.00,Wunderground v.1.15,2013-02-08 05:03:00,
2013-02-08 00:06:00,18.1,-0.7,30.57,South,172,2.0,2.0,43,0.00,,,0.00,Wunderground v.1.15,2013-02-08 05:06:00,
2013-02-08 00:08:00,18.0,-1.3,30.57,South,172,1.0,2.0,42,0.00,,,0.00,Wunderground v.1.15,2013-02-08 05:08:00,
2013-02-08 00:09:00,18.0,-1.3,30.57,South,172,0.0,2.0,42,0.00,,,0.00,Wunderground v.1.15,2013-02-08 05:09:00,
2013-02-08 00:14:00,18.1,-0.7,30.57,South,172,0.0,1.0,43,0.00,,,0.00,Wunderground v.1.15,2013-02-08 05:14:00,
2013-02-08 00:15:00,18.1,-0.7,30.57,South,172,1.0,1.0,43,0.00,,,0.00,Wunderground v.1.15,2013-02-08 05:15:00,
2013-02-08 00:16:00,18.1,-1.2,30.57,South,172,0.0,1.0,42,0.00,,,0.00,Wunderground v.1.15,2013-02-08 05:16:00,
2013-02-08 00:20:00,18.1,-1.7,30.56,South,172,1.0,1.0,41,0.00,,,0.00,Wunderground v.1.15,2013-02-08 05:20:00,
2013-02-08 00:23:00,18.0,-1.8,30.56,South,172,1.0,2.0,41,0.00,,,0.00,Wunderground v.1.15,2013-02-08 05:23:00,
2013-02-08 00:25:00,18.0,-1.3,30.56,South,172,0.0,2.0,42,0.00,,,0.00,Wunderground v.1.15,2013-02-08 05:25:00,
2013-02-08 00:26:00,18.1,-1.2,30.56,South,172,0.0,2.0,42,0.00,,,0.00,Wunderground v.1.15,2013-02-08 05:26:00,
2013-02-08 00:28:00,18.0,-1.8,30.56,South,172,1.0,2.0,41,0.00,,,0.00,Wunderground v.1.15,2013-02-08 05:28:00,
2013-02-08 00:32:00,18.1,-1.7,30.56,South,172,0.0,2.0,41,0.00,,,0.00,Wunderground v.1.15,2013-02-08 05:32:00,
2013-02-08 00:33:00,18.1,-1.7,30.56,South,172,2.0,2.0,41,0.00,,,0.00,Wunderground v.1.15,2013-02-08 05:33:00,
2013-02-08 00:34:00,18.1,-1.7,30.56,South,172,4.0,4.0,41,0.00,,,0.00,Wunderground v.1.15,2013-02-08 05:34:00,
2013-02-08 00:38:00,18.1,-1.7,30.56,South,172,1.0,4.0,41,0.00,,,0.00,Wunderground v.1.15,2013-02-08 05:38:00,
2013-02-08 00:40:00,18.1,-1.7,30.56,South,172,1.0,2.0,41,0.00,,,0.00,Wunderground v.1.15,2013-02-08 05:40:00,
2013-02-08 00:44:00,18.1,-2.2,30.56,South,172,0.0,2.0,40,0.00,,,0.00,Wunderground v.1.15,2013-02-08 05:44:00,
2013-02-08 00:45:00,18.1,-1.7,30.56,South,172,1.0,2.0,41,0.00,,,0.00,Wunderground v.1.15,2013-02-08 05:45:00,
2013-02-08 00:47:00,18.0,-1.8,30.56,South,172,0.0,2.0,41,0.00,,,0.00,Wunderground v.1.15,2013-02-08 05:47:00,
2013-02-08 00:50:00,18.1,-1.7,30.56,South,172,0.0,1.0,41,0.00,,,0.00,Wunderground v.1.15,2013-02-08 05:50:00,
2013-02-08 00:51:00,18.1,-1.7,30.56,South,172,1.0,1.0,41,0.00,,,0.00,Wunderground v.1.15,2013-02-08 05:51:00,
2013-02-08 00:52:00,18.1,-1.7,30.56,South,172,1.0,1.0,41,0.00,,,0.00,Wunderground v.1.15,2013-02-08 05:52:00,
2013-02-08 00:56:00,18.1,-2.2,30.55,South,172,1.0,4.0,40,0.00,,,0.00,Wunderground v.1.15,2013-02-08 05:56:00,
2013-02-08 00:58:00,18.1,-2.2,30.55,South,172,0.0,4.0,40,0.00,,,0.00,Wunderground v.1.15,2013-02-08 05:58:00,
2013-02-08 01:02:00,18.1,-2.2,30.55,South,172,1.0,2.0,40,0.00,,,0.00,Wunderground v.1.15,2013-02-08 06:02:00,
2013-02-08 01:03:00,18.1,-2.2,30.55,South,172,2.0,2.0,40,0.00,,,0.00,Wunderground v.1.15,2013-02-08 06:03:00,
2013-02-08 01:04:00,18.1,-1.7,30.55,South,172,1.0,2.0,41,0.00,,,0.00,Wunderground v.1.15,2013-02-08 06:04:00,
2013-02-08 01:06:00,18.1,-1.7,30.55,South,172,1.0,2.0,41,0.00,,,0.00,Wunderground v.1.15,2013-02-08 06:06:00,
2013-02-08 01:12:00,18.1,-1.7,30.54,South,172,0.0,2.0,41,0.00,,,0.00,Wunderground v.1.15,2013-02-08 06:12:00,
2013-02-08 01:13:00,18.1,-1.7,30.54,South,172,0.0,2.0,41,0.00,,,0.00,Wunderground v.1.15,2013-02-08 06:13:00,
2013-02-08 01:14:00,18.1,-1.7,30.54,South,172,0.0,2.0,41,0.00,,,0.00,Wunderground v.1.15,2013-02-08 06:14:00,
2013-02-08 01:16:00,18.1,-1.7,30.54,South,172,0.0,2.0,41,0.00,,,0.00,Wunderground v.1.15,2013-02-08 06:16:00,
2013-02-08 01:20:00,18.1,-1.7,30.54,South,172,1.0,2.0,41,0.00,,,0.00,Wunderground v.1.15,2013-02-08 06:20:00,
2013-02-08 01:21:00,18.1,-1.7,30.54,South,172,0.0,1.0,41,0.00,,,0.00,Wunderground v.1.15,2013-02-08 06:21:00,
2013-02-08 01:22:00,18.1,-1.7,30.54,South,172,2.0,2.0,41,0.00,,,0.00,Wunderground v.1.15,2013-02-08 06:22:00,
2013-02-08 01:27:00,18.1,-1.7,30.54,South,172,1.0,4.0,41,0.00,,,0.00,Wunderground v.1.15,2013-02-08 06:27:00,
2013-02-08 01:29:00,18.1,-1.7,30.54,South,172,0.0,4.0,41,0.00,,,0.00,Wunderground v.1.15,2013-02-08 06:29:00,
2013-02-08 01:30:00,18.1,-1.7,30.54,South,172,1.0,4.0,41,0.00,,,0.00,Wunderground v.1.15,2013-02-08 06:30:00,
2013-02-08 01:35:00,18.0,-1.3,30.54,South,172,0.0,2.0,42,0.00,,,0.00,Wunderground v.1.15,2013-02-08 06:35:00,
2013-02-08 01:37:00,18.1,-0.7,30.54,South,172,0.0,2.0,43,0.00,,,0.00,Wunderground v.1.15,2013-02-08 06:37:00,
2013-02-08 01:38:00,18.1,-0.7,30.54,South,172,0.0,2.0,43,0.00,,,0.00,Wunderground v.1.15,2013-02-08 06:38:00,
2013-02-08 01:40:00,18.1,-0.7,30.54,South,172,0.0,2.0,43,0.00,,,0.00,Wunderground v.1.15,2013-02-08 06:40:00,
2013-02-08 01:45:00,18.1,-0.2,30.53,South,172,1.0,2.0,44,0.00,,,0.00,Wunderground v.1.15,2013-02-08 06:45:00,
2013-02-08 01:46:00,18.1,-0.2,30.53,South,172,1.0,2.0,44,0.00,,,0.00,Wunderground v.1.15,2013-02-08 06:46:00,
2013-02-08 01:47:00,18.1,-0.2,30.53,South,172,2.0,2.0,44,0.00,,,0.00,Wunderground v.1.15,2013-02-08 06:47:00,
2013-02-08 01:51:00,18.1,0.3,30.53,South,172,3.0,3.0,45,0.00,,,0.00,Wunderground v.1.15,2013-02-08 06:51:00,
2013-02-08 01:52:00,18.1,0.3,30.53,South,172,3.0,3.0,45,0.00,,,0.00,Wunderground v.1.15,2013-02-08 06:52:00,
2013-02-08 01:57:00,18.1,0.8,30.53,South,172,3.0,3.0,46,0.00,,,0.00,Wunderground v.1.15,2013-02-08 06:57:00,
2013-02-08 01:58:00,18.1,0.8,30.53,South,172,2.0,3.0,46,0.00,,,0.00,Wunderground v.1.15,2013-02-08 06:58:00,
2013-02-08 02:01:00,18.0,0.7,30.53,South,172,1.0,2.0,46,0.00,,,0.00,Wunderground v.1.15,2013-02-08 07:01:00,
2013-02-08 02:02:00,18.0,0.7,30.53,South,172,1.0,2.0,46,0.00,,,0.00,Wunderground v.1.15,2013-02-08 07:02:00,
2013-02-08 02:03:00,18.0,1.1,30.53,South,172,0.0,2.0,47,0.00,,,0.00,Wunderground v.1.15,2013-02-08 07:03:00,
2013-02-08 02:07:00,18.0,1.6,30.53,South,172,2.0,2.0,48,0.00,,,0.00,Wunderground v.1.15,2013-02-08 07:07:00,
2013-02-08 02:08:00,18.1,1.7,30.53,South,172,4.0,4.0,48,0.00,,,0.00,Wunderground v.1.15,2013-02-08 07:08:00,
2013-02-08 02:12:00,18.0,2.0,30.53,South,172,0.0,2.0,49,0.00,,,0.00,Wunderground v.1.15,2013-02-08 07:12:00,
2013-02-08 02:13:00,18.1,2.1,30.53,South,172,0.0,2.0,49,0.00,,,0.00,Wunderground v.1.15,2013-02-08 07:13:00,
2013-02-08 02:17:00,18.1,2.6,30.53,South,172,3.0,5.0,50,0.00,,,0.00,Wunderground v.1.15,2013-02-08 07:17:00,
2013-02-08 02:18:00,18.1,2.6,30.53,South,172,1.0,5.0,50,0.00,,,0.00,Wunderground v.1.15,2013-02-08 07:18:00,
2013-02-08 02:22:00,18.1,2.6,30.53,South,172,0.0,2.0,50,0.00,,,0.00,Wunderground v.1.15,2013-02-08 07:22:00,
2013-02-08 02:23:00,18.1,2.6,30.53,South,172,1.0,2.0,50,0.00,,,0.00,Wunderground v.1.15,2013-02-08 07:23:00,
2013-02-08 02:27:00,18.1,3.0,30.52,South,172,2.0,3.0,51,0.00,,,0.00,Wunderground v.1.15,2013-02-08 07:27:00,
2013-02-08 02:28:00,18.1,3.0,30.52,South,172,2.0,3.0,51,0.00,,,0.00,Wunderground v.1.15,2013-02-08 07:28:00,
2013-02-08 02:32:00,18.1,3.0,30.52,South,172,2.0,4.0,51,0.00,,,0.00,Wunderground v.1.15,2013-02-08 07:32:00,
2013-02-08 02:33:00,18.1,3.0,30.52,South,172,3.0,4.0,51,0.00,,,0.00,Wunderground v.1.15,2013-02-08 07:33:00,
2013-02-08 02:37:00,18.0,2.5,30.51,South,172,1.0,10.0,50,0.00,,,0.00,Wunderground v.1.15,2013-02-08 07:37:00,
2013-02-08 02:38:00,18.0,2.9,30.51,South,172,3.0,10.0,51,0.00,,,0.00,Wunderground v.1.15,2013-02-08 07:38:00,
2013-02-08 02:42:00,18.0,2.9,30.51,South,172,2.0,3.0,51,0.00,,,0.00,Wunderground v.1.15,2013-02-08 07:42:00,
2013-02-08 02:43:00,18.0,2.9,30.51,South,172,4.0,4.0,51,0.00,,,0.00,Wunderground v.1.15,2013-02-08 07:43:00,
2013-02-08 02:47:00,18.1,3.0,30.51,South,172,2.0,4.0,51,0.00,,,0.00,Wunderground v.1.15,2013-02-08 07:47:00,
2013-02-08 02:48:00,18.1,3.0,30.51,South,172,3.0,4.0,51,0.00,,,0.00,Wunderground v.1.15,2013-02-08 07:48:00,
2013-02-08 02:49:00,18.0,3.3,30.51,South,172,3.0,4.0,52,0.00,,,0.00,Wunderground v.1.15,2013-02-08 07:49:00,
2013-02-08 02:53:00,18.0,3.3,30.50,South,172,2.0,6.0,52,0.00,,,0.00,Wunderground v.1.15,2013-02-08 07:53:00,
2013-02-08 02:54:00,18.0,2.9,30.50,South,172,6.0,6.0,51,0.00,,,0.00,Wunderground v.1.15,2013-02-08 07:54:00,
2013-02-08 02:58:00,18.0,2.9,30.50,South,172,4.0,7.0,51,0.00,,,0.00,Wunderground v.1.15,2013-02-08 07:58:00,
2013-02-08 02:59:00,18.0,2.9,30.50,South,172,4.0,7.0,51,0.00,,,0.00,Wunderground v.1.15,2013-02-08 07:59:00,
2013-02-08 03:03:00,18.0,3.3,30.50,South,172,2.0,4.0,52,0.00,,,0.00,Wunderground v.1.15,2013-02-08 08:03:00,
2013-02-08 03:04:00,18.0,3.3,30.50,South,172,4.0,6.0,52,0.00,,,0.00,Wunderground v.1.15,2013-02-08 08:04:00,
2013-02-08 03:08:00,18.0,3.7,30.50,South,172,2.0,6.0,53,0.00,,,0.00,Wunderground v.1.15,2013-02-08 08:08:00,
2013-02-08 03:10:00,18.0,3.7,30.50,South,172,2.0,3.0,53,0.00,,,0.00,Wunderground v.1.15,2013-02-08 08:10:00,
2013-02-08 03:13:00,18.0,4.1,30.50,South,172,1.0,6.0,54,0.00,,,0.00,Wunderground v.1.15,2013-02-08 08:13:00,
2013-02-08 03:14:00,18.0,4.1,30.50,South,172,2.0,6.0,54,0.00,,,0.00,Wunderground v.1.15,2013-02-08 08:14:00,
2013-02-08 03:15:00,18.0,4.5,30.50,South,172,3.0,6.0,55,0.00,,,0.00,Wunderground v.1.15,2013-02-08 08:15:00,
2013-02-08 03:18:00,18.0,3.7,30.49,South,172,2.0,6.0,53,0.00,,,0.00,Wunderground v.1.15,2013-02-08 08:18:00,
2013-02-08 03:19:00,18.0,3.7,30.49,South,172,2.0,6.0,53,0.00,,,0.00,Wunderground v.1.15,2013-02-08 08:19:00,
2013-02-08 03:20:00,18.0,4.1,30.49,South,172,3.0,4.0,54,0.00,,,0.00,Wunderground v.1.15,2013-02-08 08:20:00,
2013-02-08 03:23:00,17.9,3.6,30.49,South,172,3.0,4.0,53,0.00,,,0.00,Wunderground v.1.15,2013-02-08 08:23:00,
2013-02-08 03:24:00,17.9,4.0,30.49,South,172,0.0,4.0,54,0.00,,,0.00,Wunderground v.1.15,2013-02-08 08:24:00,
2013-02-08 03:25:00,17.9,4.0,30.49,South,172,3.0,4.0,54,0.00,,,0.00,Wunderground v.1.15,2013-02-08 08:25:00,
2013-02-08 03:28:00,17.8,3.9,30.48,South,172,2.0,4.0,54,0.00,,,0.00,Wunderground v.1.15,2013-02-08 08:28:00,
2013-02-08 03:29:00,17.8,3.5,30.48,South,172,2.0,4.0,53,0.00,,,0.00,Wunderground v.1.15,2013-02-08 08:29:00,
2013-02-08 03:30:00,17.8,3.5,30.48,South,172,2.0,4.0,53,0.00,,,0.00,Wunderground v.1.15,2013-02-08 08:30:00,
2013-02-08 03:33:00,17.7,3.4,30.48,South,172,2.0,4.0,53,0.00,,,0.00,Wunderground v.1.15,2013-02-08 08:33:00,
2013-02-08 03:34:00,17.7,3.0,30.48,South,172,2.0,4.0,52,0.00,,,0.00,Wunderground v.1.15,2013-02-08 08:34:00,
2013-02-08 03:35:00,17.7,3.0,30.48,South,172,3.0,4.0,52,0.00,,,0.00,Wunderground v.1.15,2013-02-08 08:35:00,
2013-02-08 03:38:00,17.5,2.8,30.48,South,172,3.0,6.0,52,0.00,,,0.00,Wunderground v.1.15,2013-02-08 08:38:00,
2013-02-08 03:39:00,17.5,2.8,30.48,South,172,3.0,6.0,52,0.00,,,0.00,Wunderground v.1.15,2013-02-08 08:39:00,
2013-02-08 03:40:00,17.5,2.8,30.48,South,172,3.0,4.0,52,0.00,,,0.00,Wunderground v.1.15,2013-02-08 08:40:00,
2013-02-08 03:43:00,17.4,2.8,30.48,South,172,2.0,4.0,52,0.00,,,0.00,Wunderground v.1.15,2013-02-08 08:43:00,
2013-02-08 03:44:00,17.4,2.8,30.48,South,172,3.0,4.0,52,0.00,,,0.00,Wunderground v.1.15,2013-02-08 08:44:00,
2013-02-08 03:45:00,17.4,2.8,30.47,South,172,4.0,5.0,52,0.00,,,0.00,Wunderground v.1.15,2013-02-08 08:45:00,
2013-02-08 03:48:00,17.3,2.7,30.48,South,172,2.0,5.0,52,0.00,,,0.00,Wunderground v.1.15,2013-02-08 08:48:00,
2013-02-08 03:49:00,17.3,2.7,30.48,South,172,3.0,5.0,52,0.00,,,0.00,Wunderground v.1.15,2013-02-08 08:49:00,
2013-02-08 03:50:00,17.3,2.7,30.48,South,172,2.0,3.0,52,0.00,,,0.00,Wunderground v.1.15,2013-02-08 08:50:00,
2013-02-08 03:51:00,17.3,2.7,30.48,South,172,2.0,3.0,52,0.00,,,0.00,Wunderground v.1.15,2013-02-08 08:51:00,
2013-02-08 03:54:00,17.3,2.7,30.47,South,172,3.0,4.0,52,0.00,,,0.00,Wunderground v.1.15,2013-02-08 08:54:00,
2013-02-08 03:55:00,17.3,2.7,30.47,South,172,2.0,4.0,52,0.00,,,0.00,Wunderground v.1.15,2013-02-08 08:55:00,
2013-02-08 03:56:00,17.4,2.8,30.47,South,172,3.0,4.0,52,0.00,,,0.00,Wunderground v.1.15,2013-02-08 08:56:00,
2013-02-08 03:59:00,17.3,2.2,30.47,South,172,2.0,5.0,51,0.00,,,0.00,Wunderground v.1.15,2013-02-08 08:59:00,
2013-02-08 04:00:00,17.3,2.2,30.47,South,172,3.0,3.0,51,0.00,,,0.00,Wunderground v.1.15,2013-02-08 09:00:00,
2013-02-08 04:01:00,17.3,2.2,30.47,South,172,1.0,4.0,51,0.00,,,0.00,Wunderground v.1.15,2013-02-08 09:01:00,
2013-02-08 04:04:00,17.2,2.1,30.47,South,172,2.0,5.0,51,0.00,,,0.00,Wunderground v.1.15,2013-02-08 09:04:00,
2013-02-08 04:05:00,17.2,2.6,30.47,South,172,2.0,5.0,52,0.00,,,0.00,Wunderground v.1.15,2013-02-08 09:05:00,
2013-02-08 04:06:00,17.2,2.1,30.47,South,172,3.0,6.0,51,0.00,,,0.00,Wunderground v.1.15,2013-02-08 09:06:00,
2013-02-08 04:07:00,17.2,2.1,30.47,South,172,3.0,6.0,51,0.00,,,0.00,Wunderground v.1.15,2013-02-08 09:07:00,
2013-02-08 04:09:00,17.1,2.5,30.47,South,172,6.0,6.0,52,0.00,,,0.00,Wunderground v.1.15,2013-02-08 09:09:00,
2013-02-08 04:10:00,17.1,2.1,30.47,South,172,5.0,5.0,51,0.00,,,0.00,Wunderground v.1.15,2013-02-08 09:10:00,
2013-02-08 04:12:00,17.1,2.1,30.47,South,172,3.0,5.0,51,0.00,,,0.00,Wunderground v.1.15,2013-02-08 09:12:00,
2013-02-08 04:15:00,17.0,2.8,30.47,South,172,3.0,5.0,53,0.00,,,0.00,Wunderground v.1.15,2013-02-08 09:15:00,
2013-02-08 04:17:00,17.0,2.8,30.47,South,172,1.0,6.0,53,0.00,,,0.00,Wunderground v.1.15,2013-02-08 09:17:00,
2013-02-08 04:20:00,17.0,2.8,30.47,South,172,1.0,3.0,53,0.00,,,0.00,Wunderground v.1.15,2013-02-08 09:20:00,
2013-02-08 04:22:00,17.0,3.2,30.47,South,172,1.0,3.0,54,0.00,,,0.00,Wunderground v.1.15,2013-02-08 09:22:00,
2013-02-08 04:25:00,17.1,3.7,30.47,South,172,4.0,4.0,55,0.00,,,0.00,Wunderground v.1.15,2013-02-08 09:25:00,
2013-02-08 04:27:00,17.1,3.7,30.47,South,172,3.0,4.0,55,0.00,,,0.00,Wunderground v.1.15,2013-02-08 09:27:00,
2013-02-08 04:30:00,17.0,3.6,30.47,South,172,2.0,3.0,55,0.00,,,0.00,Wunderground v.1.15,2013-02-08 09:30:00,
2013-02-08 04:32:00,17.0,4.0,30.47,South,172,2.0,3.0,56,0.00,,,0.00,Wunderground v.1.15,2013-02-08 09:32:00,
2013-02-08 04:33:00,17.0,4.0,30.47,South,172,3.0,3.0,56,0.00,,,0.00,Wunderground v.1.15,2013-02-08 09:33:00,
2013-02-08 04:35:00,16.9,4.3,30.46,South,172,2.0,4.0,57,0.00,,,0.00,Wunderground v.1.15,2013-02-08 09:35:00,
2013-02-08 04:37:00,16.9,4.3,30.46,South,172,5.0,6.0,57,0.00,,,0.00,Wunderground v.1.15,2013-02-08 09:37:00,
2013-02-08 04:38:00,16.9,4.7,30.46,South,172,5.0,6.0,58,0.00,,,0.00,Wunderground v.1.15,2013-02-08 09:38:00,
2013-02-08 04:40:00,16.9,4.7,30.46,South,172,2.0,3.0,58,0.00,,,0.00,Wunderground v.1.15,2013-02-08 09:40:00,
2013-02-08 04:42:00,16.9,5.0,30.46,South,172,1.0,4.0,59,0.00,,,0.00,Wunderground v.1.15,2013-02-08 09:42:00,
2013-02-08 04:43:00,16.9,5.0,30.46,South,172,2.0,4.0,59,0.00,,,0.00,Wunderground v.1.15,2013-02-08 09:43:00,
2013-02-08 04:45:00,17.0,5.5,30.47,South,172,1.0,5.0,60,0.00,,,0.00,Wunderground v.1.15,2013-02-08 09:45:00,
2013-02-08 04:48:00,16.9,5.4,30.47,South,172,3.0,5.0,60,0.00,,,0.00,Wunderground v.1.15,2013-02-08 09:48:00,
2013-02-08 04:51:00,16.9,5.8,30.47,South,172,3.0,4.0,61,0.00,,,0.00,Wunderground v.1.15,2013-02-08 09:51:00,
2013-02-08 04:53:00,16.8,6.0,30.47,South,172,2.0,6.0,62,0.00,,,0.00,Wunderground v.1.15,2013-02-08 09:53:00,
2013-02-08 04:56:00,16.8,6.4,30.47,South,172,2.0,6.0,63,0.00,,,0.00,Wunderground v.1.15,2013-02-08 09:56:00,
2013-02-08 04:58:00,16.8,6.4,30.47,South,172,2.0,6.0,63,0.00,,,0.00,Wunderground v.1.15,2013-02-08 09:58:00,
2013-02-08 05:02:00,16.8,6.7,30.46,South,172,4.0,4.0,64,0.00,,,0.00,Wunderground v.1.15,2013-02-08 10:02:00,
2013-02-08 05:03:00,16.8,6.7,30.46,South,172,5.0,6.0,64,0.00,,,0.00,Wunderground v.1.15,2013-02-08 10:03:00,
2013-02-08 05:07:00,16.7,7.0,30.47,South,172,3.0,7.0,65,0.00,,,0.00,Wunderground v.1.15,2013-02-08 10:07:00,
2013-02-08 05:08:00,16.7,7.3,30.47,South,172,2.0,7.0,66,0.00,,,0.00,Wunderground v.1.15,2013-02-08 10:08:00,
2013-02-08 05:12:00,16.6,7.9,30.46,South,172,3.0,6.0,68,0.00,,,0.00,Wunderground v.1.15,2013-02-08 10:12:00,
2013-02-08 05:13:00,16.6,7.9,30.46,South,172,3.0,6.0,68,0.00,,,0.00,Wunderground v.1.15,2013-02-08 10:13:00,
2013-02-08 05:17:00,16.4,8.0,30.46,South,172,2.0,6.0,69,0.00,,,0.00,Wunderground v.1.15,2013-02-08 10:17:00,
2013-02-08 05:18:00,16.4,8.0,30.46,South,172,3.0,7.0,69,0.00,,,0.00,Wunderground v.1.15,2013-02-08 10:18:00,
2013-02-08 05:22:00,16.3,8.2,30.46,South,172,3.0,5.0,70,0.00,,,0.00,Wunderground v.1.15,2013-02-08 10:22:00,
2013-02-08 05:23:00,16.3,8.5,30.46,South,172,2.0,5.0,71,0.00,,,0.00,Wunderground v.1.15,2013-02-08 10:23:00,
2013-02-08 05:27:00,16.3,8.5,30.46,South,172,4.0,5.0,71,0.00,,,0.00,Wunderground v.1.15,2013-02-08 10:27:00,
2013-02-08 05:28:00,16.3,8.9,30.46,South,172,2.0,6.0,72,0.00,,,0.00,Wunderground v.1.15,2013-02-08 10:28:00,
2013-02-08 05:32:00,16.1,8.7,30.46,South,172,3.0,4.0,72,0.00,,,0.00,Wunderground v.1.15,2013-02-08 10:32:00,
2013-02-08 05:33:00,16.1,9.0,30.46,South,172,2.0,4.0,73,0.00,,,0.00,Wunderground v.1.15,2013-02-08 10:33:00,
2013-02-08 05:37:00,16.1,9.0,30.45,South,172,2.0,5.0,73,0.00,,,0.00,Wunderground v.1.15,2013-02-08 10:37:00,
2013-02-08 05:38:00,16.1,9.0,30.46,South,172,3.0,5.0,73,0.00,,,0.00,Wunderground v.1.15,2013-02-08 10:38:00,
2013-02-08 05:42:00,16.0,9.2,30.45,South,172,1.0,5.0,74,0.00,,,0.00,Wunderground v.1.15,2013-02-08 10:42:00,
2013-02-08 05:43:00,16.0,9.2,30.45,South,172,0.0,5.0,74,0.00,,,0.00,Wunderground v.1.15,2013-02-08 10:43:00,
2013-02-08 05:44:00,16.0,9.5,30.45,South,172,1.0,5.0,75,0.00,,,0.00,Wunderground v.1.15,2013-02-08 10:44:00,
2013-02-08 05:47:00,16.0,9.5,30.45,South,172,3.0,5.0,75,0.00,,,0.00,Wunderground v.1.15,2013-02-08 10:47:00,
2013-02-08 05:48:00,16.0,9.5,30.45,South,172,2.0,5.0,75,0.00,,,0.00,Wunderground v.1.15,2013-02-08 10:48:00,
2013-02-08 05:49:00,15.9,9.4,30.45,South,172,3.0,5.0,75,0.00,,,0.00,Wunderground v.1.15,2013-02-08 10:49:00,
2013-02-08 05:52:00,15.8,9.6,30.45,South,172,3.0,6.0,76,0.00,,,0.00,Wunderground v.1.15,2013-02-08 10:52:00,
2013-02-08 05:53:00,15.8,9.6,30.45,South,172,3.0,6.0,76,0.00,,,0.00,Wunderground v.1.15,2013-02-08 10:53:00,
2013-02-08 05:54:00,15.8,9.6,30.45,South,172,1.0,6.0,76,0.00,,,0.00,Wunderground v.1.15,2013-02-08 10:54:00,
2013-02-08 05:57:00,15.7,9.8,30.45,South,172,3.0,6.0,77,0.00,,,0.00,Wunderground v.1.15,2013-02-08 10:57:00,
2013-02-08 05:58:00,15.7,9.8,30.45,South,172,2.0,6.0,77,0.00,,,0.00,Wunderground v.1.15,2013-02-08 10:58:00,
2013-02-08 05:59:00,15.7,9.8,30.45,South,172,6.0,7.0,77,0.00,,,0.00,Wunderground v.1.15,2013-02-08 10:59:00,
2013-02-08 06:03:00,15.6,10.0,30.45,South,172,5.0,6.0,78,0.00,,,0.00,Wunderground v.1.15,2013-02-08 11:03:00,
2013-02-08 06:04:00,15.6,10.0,30.45,South,172,2.0,6.0,78,0.00,,,0.00,Wunderground v.1.15,2013-02-08 11:04:00,
2013-02-08 06:08:00,15.5,10.1,30.44,South,172,2.0,6.0,79,0.00,,,0.00,Wunderground v.1.15,2013-02-08 11:08:00,
2013-02-08 06:09:00,15.5,10.1,30.45,South,172,3.0,6.0,79,0.00,,,0.00,Wunderground v.1.15,2013-02-08 11:09:00,
2013-02-08 06:13:00,15.5,10.4,30.45,South,172,1.0,4.0,80,0.00,,,0.00,Wunderground v.1.15,2013-02-08 11:13:00,
2013-02-08 06:14:00,15.4,10.3,30.45,South,172,3.0,4.0,80,0.00,,,0.00,Wunderground v.1.15,2013-02-08 11:14:00,
2013-02-08 06:18:00,15.4,10.6,30.45,South,172,0.0,4.0,81,0.00,,,0.00,Wunderground v.1.15,2013-02-08 11:18:00,
2013-02-08 06:19:00,15.4,10.6,30.45,South,172,2.0,4.0,81,0.00,,,0.00,Wunderground v.1.15,2013-02-08 11:19:00,
2013-02-08 06:23:00,15.4,10.6,30.45,South,172,1.0,6.0,81,0.00,,,0.00,Wunderground v.1.15,2013-02-08 11:23:00,
2013-02-08 06:24:00,15.4,10.6,30.45,South,172,4.0,6.0,81,0.00,,,0.00,Wunderground v.1.15,2013-02-08 11:24:00,
2013-02-08 06:28:00,15.3,10.8,30.45,South,172,3.0,6.0,82,0.00,,,0.00,Wunderground v.1.15,2013-02-08 11:28:00,
2013-02-08 06:29:00,15.3,10.8,30.45,South,172,3.0,6.0,82,0.00,,,0.00,Wunderground v.1.15,2013-02-08 11:29:00,
2013-02-08 06:33:00,15.2,10.7,30.45,South,172,3.0,4.0,82,0.00,,,0.00,Wunderground v.1.15,2013-02-08 11:33:00,
2013-02-08 06:34:00,15.2,11.0,30.45,South,172,1.0,4.0,83,0.00,,,0.00,Wunderground v.1.15,2013-02-08 11:34:00,
2013-02-08 06:38:00,15.1,10.9,30.45,South,172,2.0,5.0,83,0.00,,,0.00,Wunderground v.1.15,2013-02-08 11:38:00,
2013-02-08 06:39:00,15.1,10.9,30.45,South,172,2.0,5.0,83,0.00,,,0.00,Wunderground v.1.15,2013-02-08 11:39:00,
2013-02-08 06:43:00,15.0,10.8,30.45,South,172,4.0,5.0,83,0.00,,,0.00,Wunderground v.1.15,2013-02-08 11:43:00,
2013-02-08 06:44:00,15.0,11.0,30.45,South,172,2.0,5.0,84,0.00,,,0.00,Wunderground v.1.15,2013-02-08 11:44:00,
2013-02-08 06:45:00,15.0,11.0,30.45,South,172,3.0,5.0,84,0.00,,,0.00,Wunderground v.1.15,2013-02-08 11:45:00,
2013-02-08 06:48:00,14.9,10.9,30.44,South,172,4.0,5.0,84,0.00,,,0.00,Wunderground v.1.15,2013-02-08 11:48:00,
2013-02-08 06:49:00,14.9,10.9,30.44,South,172,3.0,5.0,84,0.00,,,0.00,Wunderground v.1.15,2013-02-08 11:49:00,
2013-02-08 06:50:00,14.9,10.9,30.44,South,172,1.0,3.0,84,0.00,,,0.00,Wunderground v.1.15,2013-02-08 11:50:00,
2013-02-08 06:54:00,14.8,10.8,30.44,South,172,3.0,5.0,84,0.00,,,0.00,Wunderground v.1.15,2013-02-08 11:54:00,
2013-02-08 06:55:00,14.8,10.8,30.44,South,172,2.0,5.0,84,0.00,,,0.00,Wunderground v.1.15,2013-02-08 11:55:00,
2013-02-08 06:59:00,14.8,11.1,30.44,South,172,3.0,6.0,85,0.00,,,0.00,Wunderground v.1.15,2013-02-08 11:59:00,
2013-02-08 07:01:00,14.8,11.1,30.43,South,172,3.0,3.0,85,0.00,,,0.00,Wunderground v.1.15,2013-02-08 12:01:00,
2013-02-08 07:02:00,14.8,11.1,30.44,South,172,3.0,3.0,85,0.00,,,0.00,Wunderground v.1.15,2013-02-08 12:02:00,
2013-02-08 07:04:00,14.7,11.0,30.44,South,172,3.0,6.0,85,0.00,,,0.00,Wunderground v.1.15,2013-02-08 12:04:00,
2013-02-08 07:07:00,14.7,11.3,30.43,South,172,5.0,7.0,86,0.00,,,0.00,Wunderground v.1.15,2013-02-08 12:07:00,
2013-02-08 07:09:00,14.6,11.2,30.44,South,172,4.0,7.0,86,0.00,,,0.00,Wunderground v.1.15,2013-02-08 12:09:00,
2013-02-08 07:11:00,14.6,11.2,30.43,South,172,2.0,4.0,86,0.00,,,0.00,Wunderground v.1.15,2013-02-08 12:11:00,
2013-02-08 07:12:00,14.6,11.2,30.43,South,172,2.0,4.0,86,0.00,,,0.00,Wunderground v.1.15,2013-02-08 12:12:00,
2013-02-08 07:14:00,14.6,11.2,30.44,South,172,2.0,4.0,86,0.00,,,0.00,Wunderground v.1.15,2013-02-08 12:14:00,
2013-02-08 07:17:00,14.6,11.2,30.44,South,172,3.0,4.0,86,0.00,,,0.00,Wunderground v.1.15,2013-02-08 12:17:00,
2013-02-08 07:19:00,14.6,11.2,30.44,South,172,2.0,4.0,86,0.00,,,0.00,Wunderground v.1.15,2013-02-08 12:19:00,
2013-02-08 07:22:00,14.6,11.4,30.44,South,172,2.0,4.0,87,0.00,,,0.00,Wunderground v.1.15,2013-02-08 12:22:00,
2013-02-08 07:24:00,14.6,11.4,30.44,South,172,1.0,4.0,87,0.00,,,0.00,Wunderground v.1.15,2013-02-08 12:24:00,
2013-02-08 07:25:00,14.6,11.4,30.44,South,172,3.0,4.0,87,0.00,,,0.00,Wunderground v.1.15,2013-02-08 12:25:00,
2013-02-08 07:27:00,14.7,11.5,30.44,South,172,0.0,4.0,87,0.00,,,0.00,Wunderground v.1.15,2013-02-08 12:27:00,
2013-02-08 07:29:00,14.6,11.4,30.44,South,172,3.0,5.0,87,0.00,,,0.00,Wunderground v.1.15,2013-02-08 12:29:00,
2013-02-08 07:30:00,14.6,11.4,30.44,South,172,3.0,4.0,87,0.00,,,0.00,Wunderground v.1.15,2013-02-08 12:30:00,
2013-02-08 07:32:00,14.6,11.4,30.44,South,172,2.0,4.0,87,0.00,,,0.00,Wunderground v.1.15,2013-02-08 12:32:00,
2013-02-08 07:34:00,14.7,11.5,30.44,South,172,3.0,4.0,87,0.00,,,0.00,Wunderground v.1.15,2013-02-08 12:34:00,
2013-02-08 07:35:00,14.7,11.5,30.44,South,172,1.0,4.0,87,0.00,,,0.00,Wunderground v.1.15,2013-02-08 12:35:00,
2013-02-08 07:37:00,14.7,11.5,30.44,South,172,2.0,4.0,87,0.00,,,0.00,Wunderground v.1.15,2013-02-08 12:37:00,
2013-02-08 07:39:00,14.7,11.5,30.44,South,172,1.0,4.0,87,0.00,,,0.00,Wunderground v.1.15,2013-02-08 12:39:00,
2013-02-08 07:40:00,14.7,11.5,30.44,South,172,1.0,1.0,87,0.00,,,0.00,Wunderground v.1.15,2013-02-08 12:40:00,
2013-02-08 07:42:00,14.7,11.5,30.43,South,172,3.0,5.0,87,0.00,,,0.00,Wunderground v.1.15,2013-02-08 12:42:00,
2013-02-08 07:44:00,14.7,11.5,30.44,South,172,2.0,5.0,87,0.00,,,0.00,Wunderground v.1.15,2013-02-08 12:44:00,
2013-02-08 07:45:00,14.7,11.5,30.43,South,172,1.0,5.0,87,0.00,,,0.00,Wunderground v.1.15,2013-02-08 12:45:00,
2013-02-08 07:47:00,14.7,11.5,30.44,South,172,0.0,5.0,87,0.00,,,0.00,Wunderground v.1.15,2013-02-08 12:47:00,
2013-02-08 07:48:00,14.7,11.5,30.44,South,172,0.0,5.0,87,0.00,,,0.00,Wunderground v.1.15,2013-02-08 12:48:00,
2013-02-08 07:50:00,14.7,11.8,30.43,South,172,4.0,4.0,88,0.00,,,0.00,Wunderground v.1.15,2013-02-08 12:50:00,
2013-02-08 07:52:00,14.7,11.8,30.43,South,172,1.0,4.0,88,0.00,,,0.00,Wunderground v.1.15,2013-02-08 12:52:00,
2013-02-08 07:53:00,14.7,11.8,30.44,South,172,2.0,4.0,88,0.00,,,0.00,Wunderground v.1.15,2013-02-08 12:53:00,
2013-02-08 07:55:00,14.7,11.8,30.43,South,172,3.0,4.0,88,0.00,,,0.00,Wunderground v.1.15,2013-02-08 12:55:00,
2013-02-08 07:57:00,14.7,11.8,30.43,South,172,3.0,4.0,88,0.00,,,0.00,Wunderground v.1.15,2013-02-08 12:57:00,
2013-02-08 07:58:00,14.7,11.8,30.43,South,172,3.0,4.0,88,0.00,,,0.00,Wunderground v.1.15,2013-02-08 12:58:00,
2013-02-08 08:00:00,14.6,11.7,30.43,South,172,2.0,3.0,88,0.00,,,0.00,Wunderground v.1.15,2013-02-08 13:00:00,
2013-02-08 08:02:00,14.6,11.7,30.43,South,172,4.0,5.0,88,0.00,,,0.00,Wunderground v.1.15,2013-02-08 13:02:00,
2013-02-08 08:03:00,14.6,11.7,30.43,South,172,4.0,5.0,88,0.00,,,0.00,Wunderground v.1.15,2013-02-08 13:03:00,
2013-02-08 08:05:00,14.5,11.6,30.43,South,172,4.0,6.0,88,0.00,,,0.00,Wunderground v.1.15,2013-02-08 13:05:00,
2013-02-08 08:07:00,14.5,11.6,30.43,South,172,5.0,6.0,88,0.00,,,0.00,Wunderground v.1.15,2013-02-08 13:07:00,
2013-02-08 08:08:00,14.5,11.6,30.43,South,172,3.0,8.0,88,0.00,,,0.00,Wunderground v.1.15,2013-02-08 13:08:00,
2013-02-08 08:10:00,14.5,11.6,30.43,South,172,3.0,5.0,88,0.00,,,0.00,Wunderground v.1.15,2013-02-08 13:10:00,
2013-02-08 08:12:00,14.4,11.5,30.43,South,172,1.0,6.0,88,0.00,,,0.00,Wunderground v.1.15,2013-02-08 13:12:00,
2013-02-08 08:13:00,14.4,11.5,30.43,South,172,2.0,6.0,88,0.00,,,0.00,Wunderground v.1.15,2013-02-08 13:13:00,
2013-02-08 08:16:00,14.4,11.5,30.43,South,172,5.0,7.0,88,0.00,,,0.00,Wunderground v.1.15,2013-02-08 13:16:00,
2013-02-08 08:17:00,14.4,11.5,30.43,South,172,3.0,7.0,88,0.00,,,0.00,Wunderground v.1.15,2013-02-08 13:17:00,
2013-02-08 08:18:00,14.4,11.5,30.43,South,172,4.0,7.0,88,0.00,,,0.00,Wunderground v.1.15,2013-02-08 13:18:00,
2013-02-08 08:19:00,14.4,11.5,30.43,South,172,6.0,7.0,88,0.00,,,0.00,Wunderground v.1.15,2013-02-08 13:19:00,
2013-02-08 08:21:00,14.4,11.5,30.42,South,172,4.0,5.0,88,0.00,,,0.00,Wunderground v.1.15,2013-02-08 13:21:00,
2013-02-08 08:22:00,14.4,11.5,30.43,South,172,6.0,6.0,88,0.00,,,0.00,Wunderground v.1.15,2013-02-08 13:22:00,
2013-02-08 08:23:00,14.4,11.5,30.43,South,172,6.0,6.0,88,0.00,,,0.00,Wunderground v.1.15,2013-02-08 13:23:00,
2013-02-08 08:24:00,14.4,11.5,30.42,South,172,1.0,6.0,88,0.00,,,0.00,Wunderground v.1.15,2013-02-08 13:24:00,
2013-02-08 08:26:00,14.4,11.5,30.42,South,172,2.0,6.0,88,0.00,,,0.00,Wunderground v.1.15,2013-02-08 13:26:00,
2013-02-08 08:27:00,14.4,11.5,30.43,South,172,2.0,6.0,88,0.00,,,0.00,Wunderground v.1.15,2013-02-08 13:27:00,
2013-02-08 08:28:00,14.4,11.5,30.42,South,172,3.0,6.0,88,0.00,,,0.00,Wunderground v.1.15,2013-02-08 13:28:00,
2013-02-08 08:29:00,14.4,11.5,30.42,South,172,7.0,7.0,88,0.00,,,0.00,Wunderground v.1.15,2013-02-08 13:29:00,
2013-02-08 08:32:00,14.4,11.5,30.42,South,172,5.0,11.0,88,0.00,,,0.00,Wunderground v.1.15,2013-02-08 13:32:00,
2013-02-08 08:34:00,14.3,11.4,30.42,South,172,3.0,11.0,88,0.00,,,0.00,Wunderground v.1.15,2013-02-08 13:34:00,
2013-02-08 08:37:00,14.3,11.4,30.42,South,172,4.0,11.0,88,0.00,,,0.00,Wunderground v.1.15,2013-02-08 13:37:00,
2013-02-08 08:39:00,14.3,11.4,30.42,South,172,4.0,11.0,88,0.00,,,0.00,Wunderground v.1.15,2013-02-08 13:39:00,
2013-02-08 08:42:00,14.4,11.8,30.42,South,172,2.0,4.0,89,0.00,,,0.00,Wunderground v.1.15,2013-02-08 13:42:00,
2013-02-08 08:44:00,14.5,11.9,30.42,South,172,4.0,5.0,89,0.00,,,0.00,Wunderground v.1.15,2013-02-08 13:44:00,
2013-02-08 08:45:00,14.5,11.9,30.42,South,172,3.0,6.0,89,0.00,,,0.00,Wunderground v.1.15,2013-02-08 13:45:00,
2013-02-08 08:47:00,14.4,11.5,30.41,South,172,3.0,7.0,88,0.00,,,0.00,Wunderground v.1.15,2013-02-08 13:47:00,
2013-02-08 08:49:00,14.5,11.6,30.42,South,172,4.0,7.0,88,0.00,,,0.00,Wunderground v.1.15,2013-02-08 13:49:00,
2013-02-08 08:50:00,14.4,11.5,30.41,South,172,5.0,5.0,88,0.00,,,0.00,Wunderground v.1.15,2013-02-08 13:50:00,
2013-02-08 08:52:00,14.5,11.9,30.41,South,172,2.0,5.0,89,0.00,,,0.00,Wunderground v.1.15,2013-02-08 13:52:00,
2013-02-08 08:53:00,14.5,11.9,30.41,South,172,3.0,5.0,89,0.00,,,0.00,Wunderground v.1.15,2013-02-08 13:53:00,
2013-02-08 08:54:00,14.5,11.9,30.41,South,172,3.0,5.0,89,0.00,,,0.00,Wunderground v.1.15,2013-02-08 13:54:00,
2013-02-08 08:55:00,14.5,11.9,30.41,South,172,6.0,11.0,89,0.00,,,0.00,Wunderground v.1.15,2013-02-08 13:55:00,
2013-02-08 08:57:00,14.5,11.6,30.41,South,172,4.0,11.0,88,0.00,,,0.00,Wunderground v.1.15,2013-02-08 13:57:00,
2013-02-08 08:58:00,14.5,11.6,30.41,South,172,4.0,11.0,88,0.00,,,0.00,Wunderground v.1.15,2013-02-08 13:58:00,
2013-02-08 08:59:00,14.5,11.6,30.41,South,172,5.0,11.0,88,0.00,,,0.00,Wunderground v.1.15,2013-02-08 13:59:00,
2013-02-08 09:01:00,14.5,11.9,30.41,South,172,4.0,5.0,89,0.00,,,0.00,Wunderground v.1.15,2013-02-08 14:01:00,
2013-02-08 09:03:00,14.6,11.9,30.41,South,172,2.0,5.0,89,0.00,,,0.00,Wunderground v.1.15,2013-02-08 14:03:00,
2013-02-08 09:04:00,14.5,11.6,30.41,South,172,5.0,5.0,88,0.00,,,0.00,Wunderground v.1.15,2013-02-08 14:04:00,
2013-02-08 09:07:00,14.6,11.7,30.40,South,172,3.0,5.0,88,0.00,,,0.00,Wunderground v.1.15,2013-02-08 14:07:00,
2013-02-08 09:08:00,14.6,11.7,30.40,South,172,3.0,5.0,88,0.00,,,0.00,Wunderground v.1.15,2013-02-08 14:08:00,
2013-02-08 09:09:00,14.6,11.7,30.40,South,172,2.0,5.0,88,0.00,,,0.00,Wunderground v.1.15,2013-02-08 14:09:00,
2013-02-08 09:12:00,14.5,11.6,30.40,South,172,2.0,8.0,88,0.00,,,0.00,Wunderground v.1.15,2013-02-08 14:12:00,
2013-02-08 09:13:00,14.5,11.6,30.40,South,172,2.0,8.0,88,0.00,,,0.00,Wunderground v.1.15,2013-02-08 14:13:00,
2013-02-08 09:15:00,14.5,11.6,30.40,South,172,4.0,8.0,88,0.00,,,0.00,Wunderground v.1.15,2013-02-08 14:15:00,
2013-02-08 09:17:00,14.5,11.6,30.40,South,172,6.0,8.0,88,0.00,,,0.00,Wunderground v.1.15,2013-02-08 14:17:00,
2013-02-08 09:18:00,14.5,11.6,30.40,South,172,3.0,8.0,88,0.00,,,0.00,Wunderground v.1.15,2013-02-08 14:18:00,
2013-02-08 09:20:00,14.5,11.6,30.40,South,172,5.0,6.0,88,0.00,,,0.00,Wunderground v.1.15,2013-02-08 14:20:00,
2013-02-08 09:22:00,14.4,11.5,30.40,South,172,3.0,6.0,88,0.00,,,0.00,Wunderground v.1.15,2013-02-08 14:22:00,
2013-02-08 09:23:00,14.4,11.5,30.40,South,172,4.0,8.0,88,0.00,,,0.00,Wunderground v.1.15,2013-02-08 14:23:00,
2013-02-08 09:25:00,14.4,11.5,30.40,South,172,2.0,8.0,88,0.00,,,0.00,Wunderground v.1.15,2013-02-08 14:25:00,
2013-02-08 09:27:00,14.4,11.5,30.40,South,172,2.0,12.0,88,0.00,,,0.00,Wunderground v.1.15,2013-02-08 14:27:00,
2013-02-08 09:28:00,14.4,11.5,30.40,South,172,2.0,12.0,88,0.00,,,0.00,Wunderground v.1.15,2013-02-08 14:28:00,
2013-02-08 09:29:00,14.4,11.5,30.39,South,172,2.0,12.0,88,0.00,,,0.00,Wunderground v.1.15,2013-02-08 14:29:00,
2013-02-08 09:30:00,14.4,11.5,30.39,South,172,2.0,4.0,88,0.00,,,0.00,Wunderground v.1.15,2013-02-08 14:30:00,
2013-02-08 09:33:00,14.5,11.9,30.39,South,172,5.0,7.0,89,0.00,,,0.00,Wunderground v.1.15,2013-02-08 14:33:00,
2013-02-08 09:34:00,14.5,11.9,30.40,South,172,2.0,7.0,89,0.00,,,0.00,Wunderground v.1.15,2013-02-08 14:34:00,
2013-02-08 09:35:00,14.5,11.6,30.40,South,172,2.0,7.0,88,0.00,,,0.00,Wunderground v.1.15,2013-02-08 14:35:00,
2013-02-08 09:38:00,14.5,11.6,30.40,South,172,2.0,7.0,88,0.00,,,0.00,Wunderground v.1.15,2013-02-08 14:38:00,
2013-02-08 09:39:00,14.5,11.6,30.39,South,172,3.0,7.0,88,0.00,,,0.00,Wunderground v.1.15,2013-02-08 14:39:00,
2013-02-08 09:40:00,14.5,11.6,30.39,South,172,6.0,6.0,88,0.00,,,0.00,Wunderground v.1.15,2013-02-08 14:40:00,
2013-02-08 09:43:00,14.4,11.5,30.40,South,172,3.0,7.0,88,0.00,,,0.00,Wunderground v.1.15,2013-02-08 14:43:00,
2013-02-08 09:44:00,14.4,11.5,30.40,South,172,1.0,7.0,88,0.00,,,0.00,Wunderground v.1.15,2013-02-08 14:44:00,
2013-02-08 09:45:00,14.4,11.5,30.40,South,172,2.0,7.0,88,0.00,,,0.00,Wunderground v.1.15,2013-02-08 14:45:00,
2013-02-08 09:48:00,14.3,11.4,30.40,South,172,2.0,7.0,88,0.00,,,0.00,Wunderground v.1.15,2013-02-08 14:48:00,
2013-02-08 09:49:00,14.3,11.4,30.40,South,172,5.0,7.0,88,0.00,,,0.00,Wunderground v.1.15,2013-02-08 14:49:00,
2013-02-08 09:50:00,14.3,11.4,30.40,South,172,3.0,4.0,88,0.00,,,0.00,Wunderground v.1.15,2013-02-08 14:50:00,
2013-02-08 09:54:00,14.2,11.6,30.40,South,172,1.0,5.0,89,0.00,,,0.00,Wunderground v.1.15,2013-02-08 14:54:00,
2013-02-08 09:56:00,14.3,11.7,30.40,South,172,3.0,5.0,89,0.00,,,0.00,Wunderground v.1.15,2013-02-08 14:56:00,
2013-02-08 09:59:00,14.3,11.7,30.40,South,172,1.0,5.0,89,0.00,,,0.00,Wunderground v.1.15,2013-02-08 14:59:00,
2013-02-08 10:02:00,14.4,11.8,30.39,South,172,2.0,3.0,89,0.00,,,0.00,Wunderground v.1.15,2013-02-08 15:02:00,
2013-02-08 10:04:00,14.4,11.8,30.39,South,172,2.0,6.0,89,0.00,,,0.00,Wunderground v.1.15,2013-02-08 15:04:00,
2013-02-08 10:07:00,14.4,11.8,30.39,South,172,4.0,6.0,89,0.00,,,0.00,Wunderground v.1.15,2013-02-08 15:07:00,
2013-02-08 10:09:00,14.4,11.8,30.39,South,172,4.0,6.0,89,0.00,,,0.00,Wunderground v.1.15,2013-02-08 15:09:00,
2013-02-08 10:10:00,14.4,11.8,30.39,South,172,4.0,5.0,89,0.00,,,0.00,Wunderground v.1.15,2013-02-08 15:10:00,
2013-02-08 10:12:00,14.3,11.7,30.39,South,172,2.0,5.0,89,0.00,,,0.00,Wunderground v.1.15,2013-02-08 15:12:00,
2013-02-08 10:14:00,14.4,11.8,30.39,South,172,1.0,5.0,89,0.00,,,0.00,Wunderground v.1.15,2013-02-08 15:14:00,
2013-02-08 10:15:00,14.4,11.8,30.39,South,172,0.0,5.0,89,0.00,,,0.00,Wunderground v.1.15,2013-02-08 15:15:00,
2013-02-08 10:17:00,14.4,11.8,30.39,South,172,1.0,5.0,89,0.00,,,0.00,Wunderground v.1.15,2013-02-08 15:17:00,
2013-02-08 10:20:00,14.4,11.8,30.39,South,172,2.0,2.0,89,0.00,,,0.00,Wunderground v.1.15,2013-02-08 15:20:00,
2013-02-08 10:22:00,14.5,11.9,30.39,South,172,5.0,6.0,89,0.00,,,0.00,Wunderground v.1.15,2013-02-08 15:22:00,
2013-02-08 10:25:00,14.5,11.9,30.39,South,172,2.0,6.0,89,0.00,,,0.00,Wunderground v.1.15,2013-02-08 15:25:00,
2013-02-08 10:27:00,14.6,11.9,30.39,South,172,3.0,7.0,89,0.00,,,0.00,Wunderground v.1.15,2013-02-08 15:27:00,
2013-02-08 10:30:00,14.6,12.2,30.39,South,172,2.0,3.0,90,0.00,,,0.00,Wunderground v.1.15,2013-02-08 15:30:00,
2013-02-08 10:31:00,14.6,12.2,30.39,South,172,3.0,3.0,90,0.00,,,0.00,Wunderground v.1.15,2013-02-08 15:31:00,
2013-02-08 10:32:00,14.7,12.3,30.39,South,172,3.0,8.0,90,0.00,,,0.00,Wunderground v.1.15,2013-02-08 15:32:00,
2013-02-08 10:35:00,14.6,11.9,30.39,South,172,4.0,8.0,89,0.00,,,0.00,Wunderground v.1.15,2013-02-08 15:35:00,
2013-02-08 10:36:00,14.6,11.9,30.39,South,172,4.0,8.0,89,0.00,,,0.00,Wunderground v.1.15,2013-02-08 15:36:00,
2013-02-08 10:38:00,14.6,11.9,30.39,South,172,2.0,8.0,89,0.00,,,0.00,Wunderground v.1.15,2013-02-08 15:38:00,
2013-02-08 10:40:00,14.6,12.2,30.39,South,172,2.0,4.0,90,0.00,,,0.00,Wunderground v.1.15,2013-02-08 15:40:00,
2013-02-08 10:41:00,14.6,12.2,30.39,South,172,5.0,7.0,90,0.00,,,0.00,Wunderground v.1.15,2013-02-08 15:41:00,
2013-02-08 10:43:00,14.6,12.2,30.38,South,172,1.0,7.0,90,0.00,,,0.00,Wunderground v.1.15,2013-02-08 15:43:00,
2013-02-08 10:45:00,14.6,12.2,30.38,South,172,3.0,7.0,90,0.00,,,0.00,Wunderground v.1.15,2013-02-08 15:45:00,
2013-02-08 10:46:00,14.6,12.2,30.38,South,172,3.0,7.0,90,0.00,,,0.00,Wunderground v.1.15,2013-02-08 15:46:00,
2013-02-08 10:48:00,14.6,12.2,30.38,South,172,1.0,7.0,90,0.00,,,0.00,Wunderground v.1.15,2013-02-08 15:48:00,
2013-02-08 10:50:00,14.6,12.2,30.38,South,172,2.0,3.0,90,0.00,,,0.00,Wunderground v.1.15,2013-02-08 15:50:00,
2013-02-08 10:51:00,14.5,12.1,30.38,South,172,4.0,4.0,90,0.00,,,0.00,Wunderground v.1.15,2013-02-08 15:51:00,
2013-02-08 10:53:00,14.5,11.9,30.38,South,172,4.0,4.0,89,0.00,,,0.00,Wunderground v.1.15,2013-02-08 15:53:00,
2013-02-08 10:55:00,14.5,11.9,30.38,South,172,1.0,7.0,89,0.00,,,0.00,Wunderground v.1.15,2013-02-08 15:55:00,
2013-02-08 10:56:00,14.5,12.1,30.37,South,172,3.0,7.0,90,0.00,,,0.00,Wunderground v.1.15,2013-02-08 15:56:00,
2013-02-08 10:58:00,14.5,12.1,30.37,South,172,2.0,7.0,90,0.00,,,0.00,Wunderground v.1.15,2013-02-08 15:58:00,
2013-02-08 11:01:00,14.5,12.1,30.37,South,172,3.0,6.0,90,0.00,,,0.00,Wunderground v.1.15,2013-02-08 16:01:00,
2013-02-08 11:02:00,14.5,12.1,30.37,South,172,3.0,6.0,90,0.00,,,0.00,Wunderground v.1.15,2013-02-08 16:02:00,
2013-02-08 11:03:00,14.5,12.1,30.37,South,172,2.0,6.0,90,0.00,,,0.00,Wunderground v.1.15,2013-02-08 16:03:00,
2013-02-08 11:06:00,14.5,12.1,30.36,South,172,2.0,6.0,90,0.00,,,0.00,Wunderground v.1.15,2013-02-08 16:06:00,
2013-02-08 11:07:00,14.5,12.1,30.36,South,172,2.0,6.0,90,0.00,,,0.00,Wunderground v.1.15,2013-02-08 16:07:00,
2013-02-08 11:08:00,14.5,12.1,30.36,South,172,2.0,6.0,90,0.00,,,0.00,Wunderground v.1.15,2013-02-08 16:08:00,
2013-02-08 11:11:00,14.5,11.9,30.36,South,172,4.0,6.0,89,0.00,,,0.00,Wunderground v.1.15,2013-02-08 16:11:00,
2013-02-08 11:12:00,14.5,11.9,30.36,South,172,2.0,6.0,89,0.00,,,0.00,Wunderground v.1.15,2013-02-08 16:12:00,
2013-02-08 11:13:00,14.4,11.8,30.36,South,172,2.0,6.0,89,0.00,,,0.00,Wunderground v.1.15,2013-02-08 16:13:00,
2013-02-08 11:17:00,14.4,12.0,30.36,South,172,5.0,7.0,90,0.00,,,0.00,Wunderground v.1.15,2013-02-08 16:17:00,
2013-02-08 11:18:00,14.4,11.8,30.36,South,172,2.0,7.0,89,0.00,,,0.00,Wunderground v.1.15,2013-02-08 16:18:00,
2013-02-08 11:22:00,14.3,11.9,30.36,South,172,2.0,8.0,90,0.00,,,0.00,Wunderground v.1.15,2013-02-08 16:22:00,
2013-02-08 11:24:00,14.4,12.0,30.36,South,172,4.0,8.0,90,0.00,,,0.00,Wunderground v.1.15,2013-02-08 16:24:00,
2013-02-08 11:27:00,14.3,11.9,30.35,South,172,3.0,8.0,90,0.00,,,0.00,Wunderground v.1.15,2013-02-08 16:27:00,
2013-02-08 11:29:00,14.4,12.0,30.35,South,172,5.0,8.0,90,0.00,,,0.00,Wunderground v.1.15,2013-02-08 16:29:00,
2013-02-08 11:32:00,14.4,12.0,30.35,South,172,1.0,5.0,90,0.00,,,0.00,Wunderground v.1.15,2013-02-08 16:32:00,
2013-02-08 11:34:00,14.4,12.0,30.35,South,172,3.0,5.0,90,0.00,,,0.00,Wunderground v.1.15,2013-02-08 16:34:00,
2013-02-08 11:37:00,14.4,12.0,30.35,South,172,4.0,6.0,90,0.00,,,0.00,Wunderground v.1.15,2013-02-08 16:37:00,
2013-02-08 11:38:00,14.4,12.0,30.34,South,172,3.0,6.0,90,0.00,,,0.00,Wunderground v.1.15,2013-02-08 16:38:00,
2013-02-08 11:39:00,14.4,12.0,30.35,South,172,2.0,6.0,90,0.00,,,0.00,Wunderground v.1.15,2013-02-08 16:39:00,
2013-02-08 11:42:00,14.4,11.8,30.34,South,172,3.0,5.0,89,0.00,,,0.00,Wunderground v.1.15,2013-02-08 16:42:00,
2013-02-08 11:43:00,14.3,11.7,30.34,South,172,1.0,5.0,89,0.00,,,0.00,Wunderground v.1.15,2013-02-08 16:43:00,
2013-02-08 11:44:00,14.4,12.0,30.34,South,172,2.0,5.0,90,0.00,,,0.00,Wunderground v.1.15,2013-02-08 16:44:00,
2013-02-08 11:48:00,14.3,11.7,30.33,South,172,3.0,11.0,89,0.00,,,0.00,Wunderground v.1.15,2013-02-08 16:48:00,
2013-02-08 11:50:00,14.3,11.7,30.33,South,172,2.0,3.0,89,0.00,,,0.00,Wunderground v.1.15,2013-02-08 16:50:00,
2013-02-08 11:53:00,14.4,12.0,30.33,South,172,2.0,9.0,90,0.00,,,0.00,Wunderground v.1.15,2013-02-08 16:53:00,
2013-02-08 11:54:00,14.4,12.0,30.33,South,172,1.0,9.0,90,0.00,,,0.00,Wunderground v.1.15,2013-02-08 16:54:00,
2013-02-08 11:55:00,14.4,12.0,30.33,South,172,2.0,9.0,90,0.00,,,0.00,Wunderground v.1.15,2013-02-08 16:55:00,
2013-02-08 11:58:00,14.5,12.1,30.33,South,172,4.0,9.0,90,0.00,,,0.00,Wunderground v.1.15,2013-02-08 16:58:00,
2013-02-08 11:59:00,14.4,11.8,30.33,South,172,2.0,9.0,89,0.00,,,0.00,Wunderground v.1.15,2013-02-08 16:59:00,
2013-02-08 12:00:00,14.4,11.8,30.33,South,172,3.0,3.0,89,0.00,,,0.00,Wunderground v.1.15,2013-02-08 17:00:00,
2013-02-08 12:03:00,14.5,11.9,30.32,South,172,2.0,5.0,89,0.00,,,0.00,Wunderground v.1.15,2013-02-08 17:03:00,
2013-02-08 12:04:00,14.5,12.1,30.32,South,172,4.0,5.0,90,0.00,,,0.00,Wunderground v.1.15,2013-02-08 17:04:00,
2013-02-08 12:05:00,14.5,12.1,30.32,South,172,2.0,9.0,90,0.00,,,0.00,Wunderground v.1.15,2013-02-08 17:05:00,
2013-02-08 12:08:00,14.5,11.9,30.32,South,172,3.0,10.0,89,0.00,,,0.00,Wunderground v.1.15,2013-02-08 17:08:00,
2013-02-08 12:09:00,14.5,11.9,30.32,South,172,3.0,10.0,89,0.00,,,0.00,Wunderground v.1.15,2013-02-08 17:09:00,
2013-02-08 12:10:00,14.6,11.9,30.32,South,172,3.0,4.0,89,0.00,,,0.00,Wunderground v.1.15,2013-02-08 17:10:00,
2013-02-08 12:13:00,14.7,12.3,30.32,South,172,3.0,4.0,90,0.00,,,0.00,Wunderground v.1.15,2013-02-08 17:13:00,
2013-02-08 12:14:00,14.8,12.4,30.32,South,172,5.0,6.0,90,0.00,,,0.00,Wunderground v.1.15,2013-02-08 17:14:00,
2013-02-08 12:16:00,14.8,12.1,30.31,South,172,1.0,7.0,89,0.00,,,0.00,Wunderground v.1.15,2013-02-08 17:16:00,
2013-02-08 12:18:00,14.7,12.0,30.31,South,172,5.0,7.0,89,0.00,,,0.00,Wunderground v.1.15,2013-02-08 17:18:00,
2013-02-08 12:19:00,14.7,12.0,30.31,South,172,2.0,7.0,89,0.00,,,0.00,Wunderground v.1.15,2013-02-08 17:19:00,
2013-02-08 12:21:00,14.7,12.0,30.31,South,172,3.0,3.0,89,0.00,,,0.00,Wunderground v.1.15,2013-02-08 17:21:00,
2013-02-08 12:23:00,14.6,11.9,30.31,South,172,3.0,4.0,89,0.00,,,0.00,Wunderground v.1.15,2013-02-08 17:23:00,
2013-02-08 12:24:00,14.5,11.9,30.31,South,172,3.0,4.0,89,0.00,,,0.00,Wunderground v.1.15,2013-02-08 17:24:00,
2013-02-08 12:27:00,14.6,11.9,30.30,South,172,2.0,6.0,89,0.00,,,0.00,Wunderground v.1.15,2013-02-08 17:27:00,
2013-02-08 12:28:00,14.5,11.9,30.30,South,172,3.0,6.0,89,0.00,,,0.00,Wunderground v.1.15,2013-02-08 17:28:00,
2013-02-08 12:29:00,14.5,11.6,30.30,South,172,3.0,7.0,88,0.00,,,0.00,Wunderground v.1.15,2013-02-08 17:29:00,
2013-02-08 12:30:00,14.5,11.6,30.30,South,172,2.0,7.0,88,0.00,,,0.00,Wunderground v.1.15,2013-02-08 17:30:00,
2013-02-08 12:32:00,14.5,11.9,30.30,South,172,7.0,7.0,89,0.00,,,0.00,Wunderground v.1.15,2013-02-08 17:32:00,
2013-02-08 12:33:00,14.4,11.5,30.30,South,172,4.0,7.0,88,0.00,,,0.00,Wunderground v.1.15,2013-02-08 17:33:00,
2013-02-08 12:35:00,14.4,11.5,30.30,South,172,4.0,7.0,88,0.00,,,0.00,Wunderground v.1.15,2013-02-08 17:35:00,
2013-02-08 12:37:00,14.4,11.8,30.29,South,172,4.0,7.0,89,0.00,,,0.00,Wunderground v.1.15,2013-02-08 17:37:00,
2013-02-08 12:39:00,14.4,11.8,30.29,South,172,6.0,8.0,89,0.00,,,0.00,Wunderground v.1.15,2013-02-08 17:39:00,
2013-02-08 12:40:00,14.4,11.8,30.29,South,172,2.0,4.0,89,0.00,,,0.00,Wunderground v.1.15,2013-02-08 17:40:00,
2013-02-08 12:42:00,14.4,11.8,30.29,South,172,3.0,5.0,89,0.00,,,0.00,Wunderground v.1.15,2013-02-08 17:42:00,
2013-02-08 12:44:00,14.5,11.9,30.29,South,172,4.0,5.0,89,0.00,,,0.00,Wunderground v.1.15,2013-02-08 17:44:00,
2013-02-08 12:45:00,14.5,11.9,30.29,South,172,2.0,5.0,89,0.00,,,0.00,Wunderground v.1.15,2013-02-08 17:45:00,
2013-02-08 12:47:00,14.5,11.9,30.28,South,172,3.0,5.0,89,0.00,,,0.00,Wunderground v.1.15,2013-02-08 17:47:00,
2013-02-08 12:49:00,14.6,11.9,30.28,South,172,5.0,7.0,89,0.00,,,0.00,Wunderground v.1.15,2013-02-08 17:49:00,
2013-02-08 12:50:00,14.6,11.9,30.28,South,172,4.0,6.0,89,0.00,,,0.00,Wunderground v.1.15,2013-02-08 17:50:00,
2013-02-08 12:51:00,14.6,11.9,30.28,South,172,2.0,6.0,89,0.00,,,0.00,Wunderground v.1.15,2013-02-08 17:51:00,
2013-02-08 12:52:00,14.6,11.9,30.28,South,172,4.0,6.0,89,0.00,,,0.00,Wunderground v.1.15,2013-02-08 17:52:00,
2013-02-08 12:54:00,14.7,12.0,30.28,South,172,2.0,6.0,89,0.00,,,0.00,Wunderground v.1.15,2013-02-08 17:54:00,
2013-02-08 12:55:00,14.7,12.0,30.28,South,172,4.0,8.0,89,0.00,,,0.00,Wunderground v.1.15,2013-02-08 17:55:00,
2013-02-08 12:56:00,14.6,11.9,30.28,South,172,8.0,8.0,89,0.00,,,0.00,Wunderground v.1.15,2013-02-08 17:56:00,
2013-02-08 12:57:00,14.6,11.7,30.28,South,172,3.0,10.0,88,0.00,,,0.00,Wunderground v.1.15,2013-02-08 17:57:00,
2013-02-08 12:59:00,14.6,11.7,30.28,South,172,7.0,10.0,88,0.00,,,0.00,Wunderground v.1.15,2013-02-08 17:59:00,
2013-02-08 13:01:00,14.6,11.7,30.27,South,172,7.0,7.0,88,0.00,,,0.00,Wunderground v.1.15,2013-02-08 18:01:00,
2013-02-08 13:03:00,14.6,11.9,30.28,South,172,4.0,7.0,89,0.00,,,0.00,Wunderground v.1.15,2013-02-08 18:03:00,
2013-02-08 13:04:00,14.5,11.9,30.28,South,172,6.0,7.0,89,0.00,,,0.00,Wunderground v.1.15,2013-02-08 18:04:00,
2013-02-08 13:06:00,14.6,11.7,30.27,South,172,1.0,7.0,88,0.00,,,0.00,Wunderground v.1.15,2013-02-08 18:06:00,
2013-02-08 13:08:00,14.6,11.9,30.28,South,172,7.0,7.0,89,0.00,,,0.00,Wunderground v.1.15,2013-02-08 18:08:00,
2013-02-08 13:11:00,14.7,12.0,30.27,South,172,4.0,7.0,89,0.00,,,0.00,Wunderground v.1.15,2013-02-08 18:11:00,
2013-02-08 13:12:00,14.6,11.7,30.27,South,172,3.0,8.0,88,0.00,,,0.00,Wunderground v.1.15,2013-02-08 18:12:00,
2013-02-08 13:13:00,14.6,11.7,30.27,South,172,4.0,8.0,88,0.00,,,0.00,Wunderground v.1.15,2013-02-08 18:13:00,
2013-02-08 13:16:00,14.7,12.0,30.27,South,172,2.0,8.0,89,0.00,,,0.00,Wunderground v.1.15,2013-02-08 18:16:00,
2013-02-08 13:17:00,14.7,12.0,30.27,South,172,1.0,8.0,89,0.00,,,0.00,Wunderground v.1.15,2013-02-08 18:17:00,
2013-02-08 13:18:00,14.7,12.0,30.27,South,172,7.0,8.0,89,0.00,,,0.00,Wunderground v.1.15,2013-02-08 18:18:00,
2013-02-08 13:21:00,14.7,11.8,30.27,South,172,3.0,9.0,88,0.00,,,0.00,Wunderground v.1.15,2013-02-08 18:21:00,
2013-02-08 13:22:00,14.7,11.8,30.27,South,172,5.0,9.0,88,0.00,,,0.00,Wunderground v.1.15,2013-02-08 18:22:00,
2013-02-08 13:23:00,14.7,11.8,30.27,South,172,2.0,9.0,88,0.00,,,0.00,Wunderground v.1.15,2013-02-08 18:23:00,
2013-02-08 13:26:00,14.7,11.8,30.26,South,172,6.0,9.0,88,0.00,,,0.00,Wunderground v.1.15,2013-02-08 18:26:00,
2013-02-08 13:27:00,14.6,11.7,30.26,South,172,6.0,9.0,88,0.00,,,0.00,Wunderground v.1.15,2013-02-08 18:27:00,
2013-02-08 13:29:00,14.6,11.7,30.26,South,172,2.0,9.0,88,0.00,,,0.00,Wunderground v.1.15,2013-02-08 18:29:00,
2013-02-08 13:31:00,14.6,11.7,30.26,South,172,4.0,7.0,88,0.00,,,0.00,Wunderground v.1.15,2013-02-08 18:31:00,
2013-02-08 13:32:00,14.6,11.7,30.26,South,172,7.0,7.0,88,0.00,,,0.00,Wunderground v.1.15,2013-02-08 18:32:00,
2013-02-08 13:34:00,14.6,11.7,30.26,South,172,4.0,9.0,88,0.00,,,0.00,Wunderground v.1.15,2013-02-08 18:34:00,
2013-02-08 13:37:00,14.6,11.7,30.25,South,172,8.0,10.0,88,0.00,,,0.00,Wunderground v.1.15,2013-02-08 18:37:00,
2013-02-08 13:38:00,14.5,11.6,30.25,South,172,1.0,10.0,88,0.00,,,0.00,Wunderground v.1.15,2013-02-08 18:38:00,
2013-02-08 13:39:00,14.5,11.6,30.25,South,172,7.0,10.0,88,0.00,,,0.00,Wunderground v.1.15,2013-02-08 18:39:00,
2013-02-08 13:42:00,14.5,11.6,30.25,South,172,2.0,7.0,88,0.00,,,0.00,Wunderground v.1.15,2013-02-08 18:42:00,
2013-02-08 13:43:00,14.6,11.7,30.25,South,172,2.0,7.0,88,0.00,,,0.00,Wunderground v.1.15,2013-02-08 18:43:00,
2013-02-08 13:45:00,14.6,11.9,30.25,South,172,6.0,7.0,89,0.00,,,0.00,Wunderground v.1.15,2013-02-08 18:45:00,
2013-02-08 13:47:00,14.7,11.8,30.24,South,172,6.0,9.0,88,0.00,,,0.00,Wunderground v.1.15,2013-02-08 18:47:00,
2013-02-08 13:48:00,14.7,11.8,30.25,South,172,5.0,9.0,88,0.00,,,0.00,Wunderground v.1.15,2013-02-08 18:48:00,
2013-02-08 13:50:00,14.6,11.7,30.25,South,172,1.0,4.0,88,0.00,,,0.00,Wunderground v.1.15,2013-02-08 18:50:00,
2013-02-08 13:53:00,14.7,12.0,30.24,South,172,1.0,5.0,89,0.00,,,0.00,Wunderground v.1.15,2013-02-08 18:53:00,
2013-02-08 13:54:00,14.7,12.0,30.24,South,172,1.0,5.0,89,0.00,,,0.00,Wunderground v.1.15,2013-02-08 18:54:00,
2013-02-08 13:56:00,14.8,12.1,30.24,South,172,5.0,8.0,89,0.00,,,0.00,Wunderground v.1.15,2013-02-08 18:56:00,
2013-02-08 13:58:00,14.8,12.1,30.23,South,172,2.0,8.0,89,0.00,,,0.00,Wunderground v.1.15,2013-02-08 18:58:00,
2013-02-08 13:59:00,14.8,12.1,30.24,South,172,4.0,8.0,89,0.00,,,0.00,Wunderground v.1.15,2013-02-08 18:59:00,
2013-02-08 14:02:00,14.9,12.2,30.23,South,172,6.0,6.0,89,0.00,,,0.00,Wunderground v.1.15,2013-02-08 19:02:00,
2013-02-08 14:03:00,14.9,12.2,30.23,South,172,5.0,6.0,89,0.00,,,0.00,Wunderground v.1.15,2013-02-08 19:03:00,
2013-02-08 14:04:00,14.9,12.2,30.23,South,172,5.0,7.0,89,0.00,,,0.00,Wunderground v.1.15,2013-02-08 19:04:00,
2013-02-08 14:08:00,14.8,11.9,30.23,South,175,4.0,16.0,88,0.00,,,0.00,Wunderground v.1.15,2013-02-08 19:08:00,
2013-02-08 14:09:00,14.8,11.9,30.23,South,175,6.0,16.0,88,0.00,,,0.00,Wunderground v.1.15,2013-02-08 19:09:00,
2013-02-08 14:13:00,14.8,12.1,30.23,South,174,8.0,8.0,89,0.00,,,0.00,Wunderground v.1.15,2013-02-08 19:13:00,
2013-02-08 14:14:00,14.8,12.1,30.23,South,174,3.0,9.0,89,0.00,,,0.00,Wunderground v.1.15,2013-02-08 19:14:00,
2013-02-08 14:15:00,14.8,12.1,30.23,South,175,2.0,9.0,89,0.00,,,0.00,Wunderground v.1.15,2013-02-08 19:15:00,
2013-02-08 14:18:00,14.8,12.1,30.22,South,175,4.0,9.0,89,0.00,,,0.00,Wunderground v.1.15,2013-02-08 19:18:00,
2013-02-08 14:19:00,14.9,12.2,30.22,South,174,3.0,9.0,89,0.00,,,0.00,Wunderground v.1.15,2013-02-08 19:19:00,
2013-02-08 14:20:00,14.8,12.1,30.22,South,174,5.0,5.0,89,0.00,,,0.00,Wunderground v.1.15,2013-02-08 19:20:00,
2013-02-08 14:23:00,15.0,12.3,30.22,South,174,1.0,5.0,89,0.00,,,0.00,Wunderground v.1.15,2013-02-08 19:23:00,
2013-02-08 14:24:00,15.0,12.3,30.22,South,174,2.0,5.0,89,0.00,,,0.00,Wunderground v.1.15,2013-02-08 19:24:00,
2013-02-08 14:25:00,15.0,12.3,30.22,South,175,2.0,5.0,89,0.00,,,0.00,Wunderground v.1.15,2013-02-08 19:25:00,
2013-02-08 14:28:00,15.0,12.3,30.22,South,175,6.0,8.0,89,0.00,,,0.00,Wunderground v.1.15,2013-02-08 19:28:00,
2013-02-08 14:29:00,15.0,12.3,30.22,South,174,7.0,8.0,89,0.00,,,0.00,Wunderground v.1.15,2013-02-08 19:29:00,
2013-02-08 14:30:00,15.0,12.3,30.22,South,174,4.0,9.0,89,0.00,,,0.00,Wunderground v.1.15,2013-02-08 19:30:00,
2013-02-08 14:34:00,15.0,12.3,30.22,South,174,7.0,10.0,89,0.00,,,0.00,Wunderground v.1.15,2013-02-08 19:34:00,
2013-02-08 14:36:00,15.0,12.3,30.21,South,174,5.0,10.0,89,0.00,,,0.00,Wunderground v.1.15,2013-02-08 19:36:00,
2013-02-08 14:39:00,15.0,12.3,30.21,South,174,6.0,10.0,89,0.00,,,0.00,Wunderground v.1.15,2013-02-08 19:39:00,
2013-02-08 14:41:00,15.0,12.3,30.21,South,174,4.0,8.0,89,0.00,,,0.00,Wunderground v.1.15,2013-02-08 19:41:00,
2013-02-08 14:44:00,15.1,12.4,30.21,South,174,9.0,11.0,89,0.00,,,0.00,Wunderground v.1.15,2013-02-08 19:44:00,
2013-02-08 14:46:00,15.0,12.3,30.21,South,175,9.0,11.0,89,0.00,,,0.00,Wunderground v.1.15,2013-02-08 19:46:00,
2013-02-08 14:49:00,15.0,12.3,30.20,South,175,2.0,12.0,89,0.00,,,0.00,Wunderground v.1.15,2013-02-08 19:49:00,
2013-02-08 14:51:00,15.0,12.3,30.20,South,174,3.0,5.0,89,0.00,,,0.00,Wunderground v.1.15,2013-02-08 19:51:00,
2013-02-08 14:54:00,15.0,12.3,30.20,South,174,6.0,11.0,89,0.00,,,0.00,Wunderground v.1.15,2013-02-08 19:54:00,
2013-02-08 14:57:00,15.0,12.3,30.20,South,174,3.0,11.0,89,0.00,,,0.00,Wunderground v.1.15,2013-02-08 19:57:00,
2013-02-08 14:59:00,15.1,12.4,30.20,South,175,2.0,11.0,89,0.00,,,0.00,Wunderground v.1.15,2013-02-08 19:59:00,
2013-02-08 15:00:00,15.1,12.4,30.20,South,175,2.0,4.0,89,0.00,,,0.00,Wunderground v.1.15,2013-02-08 20:00:00,
2013-02-08 15:02:00,15.1,12.4,30.19,South,175,3.0,5.0,89,0.00,,,0.00,Wunderground v.1.15,2013-02-08 20:02:00,
2013-02-08 15:04:00,15.1,12.4,30.20,South,175,2.0,11.0,89,0.00,,,0.00,Wunderground v.1.15,2013-02-08 20:04:00,
2013-02-08 15:05:00,15.1,12.4,30.19,South,174,3.0,11.0,89,0.00,,,0.00,Wunderground v.1.15,2013-02-08 20:05:00,
2013-02-08 15:07:00,15.1,12.4,30.20,South,175,6.0,11.0,89,0.00,,,0.00,Wunderground v.1.15,2013-02-08 20:07:00,
2013-02-08 15:09:00,15.1,12.4,30.20,South,174,2.0,11.0,89,0.00,,,0.00,Wunderground v.1.15,2013-02-08 20:09:00,
2013-02-08 15:10:00,15.1,12.4,30.20,South,174,4.0,5.0,89,0.00,,,0.00,Wunderground v.1.15,2013-02-08 20:10:00,
2013-02-08 15:12:00,15.1,12.4,30.20,South,174,4.0,7.0,89,0.00,,,0.00,Wunderground v.1.15,2013-02-08 20:12:00,
2013-02-08 15:14:00,15.2,12.5,30.19,South,174,7.0,10.0,89,0.00,,,0.00,Wunderground v.1.15,2013-02-08 20:14:00,
2013-02-08 15:17:00,15.1,12.4,30.19,South,174,5.0,10.0,89,0.00,,,0.00,Wunderground v.1.15,2013-02-08 20:17:00,
2013-02-08 15:19:00,15.1,12.4,30.19,South,175,5.0,10.0,89,0.00,,,0.00,Wunderground v.1.15,2013-02-08 20:19:00,
2013-02-08 15:20:00,15.1,12.4,30.19,South,175,7.0,10.0,89,0.00,,,0.00,Wunderground v.1.15,2013-02-08 20:20:00,
2013-02-08 15:22:00,15.1,12.4,30.19,South,175,4.0,10.0,89,0.00,,,0.00,Wunderground v.1.15,2013-02-08 20:22:00,
2013-02-08 15:25:00,15.0,12.3,30.19,South,175,4.0,10.0,89,0.00,,,0.00,Wunderground v.1.15,2013-02-08 20:25:00,
2013-02-08 15:28:00,15.0,12.3,30.18,South,175,3.0,10.0,89,0.00,,,0.00,Wunderground v.1.15,2013-02-08 20:28:00,
2013-02-08 15:30:00,14.9,12.2,30.18,South,175,4.0,4.0,89,0.00,,,0.00,Wunderground v.1.15,2013-02-08 20:30:00,
2013-02-08 15:33:00,14.9,12.2,30.18,South,174,5.0,10.0,89,0.00,,,0.00,Wunderground v.1.15,2013-02-08 20:33:00,
2013-02-08 15:35:00,14.9,12.2,30.18,South,175,5.0,10.0,89,0.00,,,0.00,Wunderground v.1.15,2013-02-08 20:35:00,
2013-02-08 15:38:00,14.9,12.2,30.18,South,175,6.0,10.0,89,0.00,,,0.00,Wunderground v.1.15,2013-02-08 20:38:00,
2013-02-08 15:40:00,14.8,12.1,30.18,South,175,6.0,6.0,89,0.00,,,0.00,Wunderground v.1.15,2013-02-08 20:40:00,
2013-02-08 15:43:00,14.8,12.1,30.18,South,174,2.0,12.0,89,0.00,,,0.00,Wunderground v.1.15,2013-02-08 20:43:00,
2013-02-08 15:45:00,14.8,12.4,30.17,South,174,6.0,12.0,90,0.00,,,0.00,Wunderground v.1.15,2013-02-08 20:45:00,
2013-02-08 15:46:00,14.8,12.4,30.17,South,174,6.0,14.0,90,0.00,,,0.00,Wunderground v.1.15,2013-02-08 20:46:00,
2013-02-08 15:48:00,14.8,12.4,30.17,South,175,5.0,14.0,90,0.00,,,0.00,Wunderground v.1.15,2013-02-08 20:48:00,
2013-02-08 15:50:00,14.7,12.3,30.17,South,174,6.0,8.0,90,0.00,,,0.00,Wunderground v.1.15,2013-02-08 20:50:00,
2013-02-08 15:51:00,14.7,12.3,30.17,South,175,2.0,8.0,90,0.00,,,0.00,Wunderground v.1.15,2013-02-08 20:51:00,
2013-02-08 15:53:00,14.7,12.3,30.17,South,175,2.0,8.0,90,0.00,,,0.00,Wunderground v.1.15,2013-02-08 20:53:00,
2013-02-08 15:55:00,14.7,12.3,30.16,South,174,4.0,9.0,90,0.00,,,0.00,Wunderground v.1.15,2013-02-08 20:55:00,
2013-02-08 15:56:00,14.7,12.3,30.16,South,174,3.0,9.0,90,0.00,,,0.00,Wunderground v.1.15,2013-02-08 20:56:00,
2013-02-08 15:58:00,14.7,12.3,30.16,South,174,9.0,14.0,90,0.00,,,0.00,Wunderground v.1.15,2013-02-08 20:58:00,
2013-02-08 16:00:00,14.6,12.2,30.16,South,175,5.0,9.0,90,0.00,,,0.00,Wunderground v.1.15,2013-02-08 21:00:00,
2013-02-08 16:02:00,14.7,12.3,30.16,South,175,7.0,9.0,90,0.00,,,0.00,Wunderground v.1.15,2013-02-08 21:02:00,
2013-02-08 16:03:00,14.6,12.2,30.16,South,175,4.0,9.0,90,0.00,,,0.00,Wunderground v.1.15,2013-02-08 21:03:00,
2013-02-08 16:05:00,14.6,12.2,30.16,South,174,5.0,16.0,90,0.00,,,0.00,Wunderground v.1.15,2013-02-08 21:05:00,
2013-02-08 16:07:00,14.6,12.2,30.16,South,174,10.0,16.0,90,0.00,,,0.00,Wunderground v.1.15,2013-02-08 21:07:00,
2013-02-08 16:08:00,14.6,12.2,30.16,South,175,5.0,16.0,90,0.00,,,0.00,Wunderground v.1.15,2013-02-08 21:08:00,
2013-02-08 16:11:00,14.6,12.2,30.16,South,174,7.0,7.0,90,0.00,,,0.00,Wunderground v.1.15,2013-02-08 21:11:00,
2013-02-08 16:12:00,14.5,12.1,30.15,South,174,4.0,9.0,90,0.00,,,0.00,Wunderground v.1.15,2013-02-08 21:12:00,
2013-02-08 16:13:00,14.6,12.2,30.15,South,175,4.0,9.0,90,0.00,,,0.00,Wunderground v.1.15,2013-02-08 21:13:00,
2013-02-08 16:14:00,14.6,12.2,30.15,South,174,3.0,9.0,90,0.00,,,0.00,Wunderground v.1.15,2013-02-08 21:14:00,
2013-02-08 16:16:00,14.6,12.2,30.15,South,175,3.0,9.0,90,0.00,,,0.00,Wunderground v.1.15,2013-02-08 21:16:00,
2013-02-08 16:17:00,14.6,12.2,30.15,South,175,5.0,11.0,90,0.00,,,0.00,Wunderground v.1.15,2013-02-08 21:17:00,
2013-02-08 16:18:00,14.6,12.2,30.15,South,174,7.0,11.0,90,0.00,,,0.00,Wunderground v.1.15,2013-02-08 21:18:00,
2013-02-08 16:19:00,14.6,12.2,30.15,South,175,4.0,11.0,90,0.00,,,0.00,Wunderground v.1.15,2013-02-08 21:19:00,
2013-02-08 16:21:00,14.5,12.1,30.15,South,175,2.0,10.0,90,0.00,,,0.00,Wunderground v.1.15,2013-02-08 21:21:00,
2013-02-08 16:22:00,14.6,12.2,30.15,South,175,11.0,11.0,90,0.00,,,0.00,Wunderground v.1.15,2013-02-08 21:22:00,
2013-02-08 16:23:00,14.5,12.1,30.15,South,175,6.0,11.0,90,0.00,,,0.00,Wunderground v.1.15,2013-02-08 21:23:00,
2013-02-08 16:24:00,14.5,12.1,30.15,South,174,5.0,12.0,90,0.00,,,0.00,Wunderground v.1.15,2013-02-08 21:24:00,
2013-02-08 16:26:00,14.5,12.1,30.15,South,175,13.0,13.0,90,0.00,,,0.00,Wunderground v.1.15,2013-02-08 21:26:00,
2013-02-08 16:27:00,14.5,12.1,30.15,South,174,5.0,13.0,90,0.00,,,0.00,Wunderground v.1.15,2013-02-08 21:27:00,
2013-02-08 16:28:00,14.5,12.1,30.15,South,174,10.0,13.0,90,0.00,,,0.00,Wunderground v.1.15,2013-02-08 21:28:00,
2013-02-08 16:29:00,14.5,12.1,30.15,South,174,12.0,13.0,90,0.00,,,0.00,Wunderground v.1.15,2013-02-08 21:29:00,
2013-02-08 16:31:00,14.5,12.1,30.14,South,175,6.0,9.0,90,0.00,,,0.00,Wunderground v.1.15,2013-02-08 21:31:00,
2013-02-08 16:32:00,14.5,12.1,30.14,South,175,8.0,9.0,90,0.00,,,0.00,Wunderground v.1.15,2013-02-08 21:32:00,
2013-02-08 16:33:00,14.5,12.1,30.14,South,175,9.0,11.0,90,0.00,,,0.00,Wunderground v.1.15,2013-02-08 21:33:00,
2013-02-08 16:34:00,14.5,12.1,30.14,South,175,5.0,11.0,90,0.00,,,0.00,Wunderground v.1.15,2013-02-08 21:34:00,
2013-02-08 16:36:00,14.4,12.0,30.14,South,174,6.0,11.0,90,0.00,,,0.00,Wunderground v.1.15,2013-02-08 21:36:00,
2013-02-08 16:37:00,14.4,12.0,30.14,South,174,6.0,12.0,90,0.00,,,0.00,Wunderground v.1.15,2013-02-08 21:37:00,
2013-02-08 16:39:00,14.4,12.0,30.14,South,174,3.0,12.0,90,0.00,,,0.00,Wunderground v.1.15,2013-02-08 21:39:00,
2013-02-08 16:40:00,14.4,12.0,30.14,South,174,7.0,7.0,90,0.00,,,0.00,Wunderground v.1.15,2013-02-08 21:40:00,
2013-02-08 16:41:00,14.4,12.0,30.14,South,174,7.0,13.0,90,0.00,,,0.00,Wunderground v.1.15,2013-02-08 21:41:00,
2013-02-08 16:43:00,14.4,12.0,30.13,South,174,3.0,13.0,90,0.00,,,0.00,Wunderground v.1.15,2013-02-08 21:43:00,
2013-02-08 16:44:00,14.4,12.3,30.13,South,176,3.0,13.0,91,0.00,,,0.00,Wunderground v.1.15,2013-02-08 21:44:00,
2013-02-08 16:45:00,14.4,12.3,30.13,South,174,3.0,13.0,91,0.00,,,0.00,Wunderground v.1.15,2013-02-08 21:45:00,
2013-02-08 16:46:00,14.4,12.3,30.14,South,174,3.0,13.0,91,0.00,,,0.00,Wunderground v.1.15,2013-02-08 21:46:00,
2013-02-08 16:48:00,14.4,12.3,30.13,South,174,4.0,13.0,91,0.00,,,0.00,Wunderground v.1.15,2013-02-08 21:48:00,
2013-02-08 16:49:00,14.4,12.3,30.13,South,174,5.0,13.0,91,0.00,,,0.00,Wunderground v.1.15,2013-02-08 21:49:00,
2013-02-08 16:50:00,14.4,12.3,30.13,South,175,5.0,13.0,91,0.00,,,0.00,Wunderground v.1.15,2013-02-08 21:50:00,
2013-02-08 16:51:00,14.4,12.0,30.13,South,174,11.0,13.0,90,0.00,,,0.00,Wunderground v.1.15,2013-02-08 21:51:00,
2013-02-08 16:53:00,14.4,12.0,30.13,South,174,9.0,13.0,90,0.00,,,0.00,Wunderground v.1.15,2013-02-08 21:53:00,
2013-02-08 16:54:00,14.3,11.9,30.13,South,175,4.0,13.0,90,0.00,,,0.00,Wunderground v.1.15,2013-02-08 21:54:00,
2013-02-08 16:55:00,14.3,11.9,30.13,South,174,3.0,13.0,90,0.00,,,0.00,Wunderground v.1.15,2013-02-08 21:55:00,
2013-02-08 16:57:00,14.3,12.2,30.13,South,174,5.0,13.0,91,0.00,,,0.00,Wunderground v.1.15,2013-02-08 21:57:00,
2013-02-08 16:58:00,14.3,12.2,30.13,South,174,4.0,13.0,91,0.00,,,0.00,Wunderground v.1.15,2013-02-08 21:58:00,
2013-02-08 16:59:00,14.3,11.9,30.13,South,174,6.0,13.0,90,0.00,,,0.00,Wunderground v.1.15,2013-02-08 21:59:00,
2013-02-08 17:01:00,14.3,11.9,30.13,South,174,6.0,6.0,90,0.00,,,0.00,Wunderground v.1.15,2013-02-08 22:01:00,
2013-02-08 17:02:00,14.3,11.9,30.13,South,174,11.0,11.0,90,0.00,,,0.00,Wunderground v.1.15,2013-02-08 22:02:00,
2013-02-08 17:03:00,14.3,11.9,30.12,South,174,3.0,11.0,90,0.00,,,0.00,Wunderground v.1.15,2013-02-08 22:03:00,
2013-02-08 17:04:00,14.3,11.9,30.12,South,175,6.0,11.0,90,0.00,,,0.00,Wunderground v.1.15,2013-02-08 22:04:00,
2013-02-08 17:06:00,14.3,12.2,30.13,South,175,6.0,11.0,91,0.00,,,0.00,Wunderground v.1.15,2013-02-08 22:06:00,
2013-02-08 17:07:00,14.3,12.2,30.12,South,174,9.0,11.0,91,0.00,,,0.00,Wunderground v.1.15,2013-02-08 22:07:00,
2013-02-08 17:08:00,14.3,12.2,30.12,South,174,5.0,11.0,91,0.00,,,0.00,Wunderground v.1.15,2013-02-08 22:08:00,
2013-02-08 17:09:00,14.3,11.9,30.12,South,175,4.0,11.0,90,0.00,,,0.00,Wunderground v.1.15,2013-02-08 22:09:00,
2013-02-08 17:11:00,14.3,11.9,30.12,South,175,7.0,12.0,90,0.00,,,0.00,Wunderground v.1.15,2013-02-08 22:11:00,
2013-02-08 17:12:00,14.3,11.9,30.12,South,174,5.0,12.0,90,0.00,,,0.00,Wunderground v.1.15,2013-02-08 22:12:00,
2013-02-08 17:13:00,14.3,11.9,30.12,South,174,4.0,12.0,90,0.00,,,0.00,Wunderground v.1.15,2013-02-08 22:13:00,
2013-02-08 17:14:00,14.3,11.9,30.12,South,175,5.0,14.0,90,0.00,,,0.00,Wunderground v.1.15,2013-02-08 22:14:00,
2013-02-08 17:16:00,14.3,11.9,30.11,South,173,4.0,14.0,90,0.00,,,0.00,Wunderground v.1.15,2013-02-08 22:16:00,
2013-02-08 17:17:00,14.3,11.9,30.12,South,173,3.0,14.0,90,0.00,,,0.00,Wunderground v.1.15,2013-02-08 22:17:00,
2013-02-08 17:18:00,14.2,12.1,30.11,South,173,7.0,14.0,91,0.00,,,0.00,Wunderground v.1.15,2013-02-08 22:18:00,
2013-02-08 17:19:00,14.2,12.1,30.11,South,174,3.0,14.0,91,0.00,,,0.00,Wunderground v.1.15,2013-02-08 22:19:00,
2013-02-08 17:21:00,14.2,12.1,30.11,South,173,6.0,11.0,91,0.00,,,0.00,Wunderground v.1.15,2013-02-08 22:21:00,
2013-02-08 17:22:00,14.2,12.1,30.11,South,173,3.0,11.0,91,0.00,,,0.00,Wunderground v.1.15,2013-02-08 22:22:00,
2013-02-08 17:23:00,14.2,12.1,30.11,South,173,4.0,11.0,91,0.00,,,0.00,Wunderground v.1.15,2013-02-08 22:23:00,
2013-02-08 17:25:00,14.2,12.1,30.11,South,173,9.0,11.0,91,0.00,,,0.00,Wunderground v.1.15,2013-02-08 22:25:00,
2013-02-08 17:26:00,14.2,12.1,30.11,South,173,4.0,11.0,91,0.00,,,0.00,Wunderground v.1.15,2013-02-08 22:26:00,
2013-02-08 17:27:00,14.2,12.1,30.11,South,173,4.0,11.0,91,0.00,,,0.00,Wunderground v.1.15,2013-02-08 22:27:00,
2013-02-08 17:29:00,14.2,12.1,30.11,South,173,5.0,11.0,91,0.00,,,0.00,Wunderground v.1.15,2013-02-08 22:29:00,
2013-02-08 17:30:00,14.2,12.1,30.11,South,173,8.0,9.0,91,0.00,,,0.00,Wunderground v.1.15,2013-02-08 22:30:00,
2013-02-08 17:31:00,14.2,12.1,30.11,South,173,7.0,11.0,91,0.00,,,0.00,Wunderground v.1.15,2013-02-08 22:31:00,
2013-02-08 17:33:00,14.2,12.1,30.11,South,173,2.0,12.0,91,0.00,,,0.00,Wunderground v.1.15,2013-02-08 22:33:00,
2013-02-08 17:34:00,14.2,12.1,30.11,South,173,5.0,12.0,91,0.00,,,0.00,Wunderground v.1.15,2013-02-08 22:34:00,
2013-02-08 17:35:00,14.2,12.1,30.11,South,173,5.0,12.0,91,0.00,,,0.00,Wunderground v.1.15,2013-02-08 22:35:00,
2013-02-08 17:36:00,14.2,12.1,30.10,South,169,14.0,18.0,91,0.00,,,0.00,Wunderground v.1.15,2013-02-08 22:36:00,
2013-02-08 17:38:00,14.2,12.1,30.11,South,175,6.0,18.0,91,0.00,,,0.00,Wunderground v.1.15,2013-02-08 22:38:00,
2013-02-08 17:39:00,14.2,12.1,30.10,South,174,4.0,18.0,91,0.00,,,0.00,Wunderground v.1.15,2013-02-08 22:39:00,
2013-02-08 17:40:00,14.2,12.1,30.10,South,174,8.0,10.0,91,0.00,,,0.00,Wunderground v.1.15,2013-02-08 22:40:00,
2013-02-08 17:41:00,14.2,12.1,30.11,South,175,4.0,11.0,91,0.00,,,0.00,Wunderground v.1.15,2013-02-08 22:41:00,
2013-02-08 17:43:00,14.2,12.1,30.10,South,174,3.0,11.0,91,0.00,,,0.00,Wunderground v.1.15,2013-02-08 22:43:00,
2013-02-08 17:44:00,14.2,12.1,30.10,South,175,8.0,11.0,91,0.00,,,0.00,Wunderground v.1.15,2013-02-08 22:44:00,
2013-02-08 17:45:00,14.2,12.1,30.10,South,175,6.0,11.0,91,0.00,,,0.00,Wunderground v.1.15,2013-02-08 22:45:00,
2013-02-08 17:47:00,14.2,12.1,30.10,South,174,6.0,11.0,91,0.00,,,0.00,Wunderground v.1.15,2013-02-08 22:47:00,
2013-02-08 17:48:00,14.2,12.1,30.10,South,175,4.0,11.0,91,0.00,,,0.00,Wunderground v.1.15,2013-02-08 22:48:00,
2013-02-08 17:49:00,14.2,12.1,30.10,South,174,5.0,11.0,91,0.00,,,0.00,Wunderground v.1.15,2013-02-08 22:49:00,
2013-02-08 17:50:00,14.3,12.2,30.10,South,174,10.0,10.0,91,0.00,,,0.00,Wunderground v.1.15,2013-02-08 22:50:00,
2013-02-08 17:52:00,14.3,12.2,30.10,South,175,3.0,13.0,91,0.00,,,0.00,Wunderground v.1.15,2013-02-08 22:52:00,
2013-02-08 17:53:00,14.3,12.2,30.10,South,175,4.0,13.0,91,0.00,,,0.00,Wunderground v.1.15,2013-02-08 22:53:00,
2013-02-08 17:54:00,14.3,12.2,30.09,South,174,3.0,13.0,91,0.00,,,0.00,Wunderground v.1.15,2013-02-08 22:54:00,
2013-02-08 17:55:00,14.3,12.2,30.10,South,175,7.0,13.0,91,0.00,,,0.00,Wunderground v.1.15,2013-02-08 22:55:00,
2013-02-08 17:57:00,14.3,12.2,30.09,South,174,10.0,13.0,91,0.00,,,0.00,Wunderground v.1.15,2013-02-08 22:57:00,
2013-02-08 17:58:00,14.3,12.2,30.09,South,175,5.0,13.0,91,0.00,,,0.00,Wunderground v.1.15,2013-02-08 22:58:00,
2013-02-08 17:59:00,14.3,12.2,30.09,South,174,7.0,13.0,91,0.00,,,0.00,Wunderground v.1.15,2013-02-08 22:59:00,
2013-02-08 18:02:00,14.3,12.2,30.09,South,174,5.0,10.0,91,0.00,,,0.00,Wunderground v.1.15,2013-02-08 23:02:00,
2013-02-08 18:03:00,14.3,12.2,30.09,South,174,3.0,11.0,91,0.00,,,0.00,Wunderground v.1.15,2013-02-08 23:03:00,
2013-02-08 18:04:00,14.3,12.2,30.09,South,174,8.0,11.0,91,0.00,,,0.00,Wunderground v.1.15,2013-02-08 23:04:00,
2013-02-08 18:07:00,14.4,12.3,30.10,South,175,5.0,11.0,91,0.00,,,0.00,Wunderground v.1.15,2013-02-08 23:07:00,
2013-02-08 18:08:00,14.4,12.3,30.09,South,174,7.0,11.0,91,0.00,,,0.00,Wunderground v.1.15,2013-02-08 23:08:00,
2013-02-08 18:09:00,14.4,12.3,30.09,South,175,9.0,12.0,91,0.00,,,0.00,Wunderground v.1.15,2013-02-08 23:09:00,
2013-02-08 18:12:00,14.4,12.3,30.09,South,174,8.0,10.0,91,0.00,,,0.00,Wunderground v.1.15,2013-02-08 23:12:00,
2013-02-08 18:13:00,14.4,12.3,30.09,South,175,9.0,11.0,91,0.00,,,0.00,Wunderground v.1.15,2013-02-08 23:13:00,
2013-02-08 18:15:00,14.4,12.3,30.09,South,174,8.0,16.0,91,0.00,,,0.00,Wunderground v.1.15,2013-02-08 23:15:00,
2013-02-08 18:18:00,14.4,12.3,30.09,South,174,2.0,16.0,91,0.00,,,0.00,Wunderground v.1.15,2013-02-08 23:18:00,
2013-02-08 18:19:00,14.4,12.3,30.09,South,174,10.0,16.0,91,0.00,,,0.00,Wunderground v.1.15,2013-02-08 23:19:00,
2013-02-08 18:20:00,14.4,12.3,30.09,South,173,7.0,8.0,91,0.00,,,0.00,Wunderground v.1.15,2013-02-08 23:20:00,
2013-02-08 18:23:00,14.4,12.3,30.08,South,173,6.0,10.0,91,0.00,,,0.00,Wunderground v.1.15,2013-02-08 23:23:00,
2013-02-08 18:24:00,14.4,12.3,30.08,South,173,4.0,10.0,91,0.00,,,0.00,Wunderground v.1.15,2013-02-08 23:24:00,
2013-02-08 18:25:00,14.4,12.3,30.08,South,174,3.0,10.0,91,0.00,,,0.00,Wunderground v.1.15,2013-02-08 23:25:00,
2013-02-08 18:28:00,14.4,12.3,30.08,South,173,3.0,10.0,91,0.00,,,0.00,Wunderground v.1.15,2013-02-08 23:28:00,
2013-02-08 18:29:00,14.3,12.2,30.08,South,173,5.0,10.0,91,0.00,,,0.00,Wunderground v.1.15,2013-02-08 23:29:00,
2013-02-08 18:30:00,14.3,12.2,30.08,South,174,4.0,5.0,91,0.00,,,0.00,Wunderground v.1.15,2013-02-08 23:30:00,
2013-02-08 18:33:00,14.3,12.2,30.08,South,174,13.0,15.0,91,0.00,,,0.00,Wunderground v.1.15,2013-02-08 23:33:00,
2013-02-08 18:34:00,14.3,12.2,30.07,South,173,7.0,15.0,91,0.00,,,0.00,Wunderground v.1.15,2013-02-08 23:34:00,
2013-02-08 18:35:00,14.3,12.2,30.07,South,173,5.0,15.0,91,0.00,,,0.00,Wunderground v.1.15,2013-02-08 23:35:00,
2013-02-08 18:38:00,14.3,12.2,30.07,South,174,2.0,15.0,91,0.00,,,0.00,Wunderground v.1.15,2013-02-08 23:38:00,
2013-02-08 18:39:00,14.3,12.2,30.07,South,173,7.0,15.0,91,0.00,,,0.00,Wunderground v.1.15,2013-02-08 23:39:00,
2013-02-08 18:40:00,14.3,12.2,30.08,South,174,3.0,17.0,91,0.00,,,0.00,Wunderground v.1.15,2013-02-08 23:40:00,
2013-02-08 18:43:00,14.3,12.2,30.07,South,173,3.0,17.0,91,0.00,,,0.00,Wunderground v.1.15,2013-02-08 23:43:00,
2013-02-08 18:44:00,14.2,12.1,30.07,South,173,6.0,17.0,91,0.00,,,0.00,Wunderground v.1.15,2013-02-08 23:44:00,
2013-02-08 18:46:00,14.2,12.1,30.07,South,173,9.0,17.0,91,0.00,,,0.00,Wunderground v.1.15,2013-02-08 23:46:00,
2013-02-08 18:48:00,14.2,12.1,30.07,South,174,3.0,17.0,91,0.00,,,0.00,Wunderground v.1.15,2013-02-08 23:48:00,
2013-02-08 18:49:00,14.2,12.1,30.07,South,173,4.0,17.0,91,0.00,,,0.00,Wunderground v.1.15,2013-02-08 23:49:00,
2013-02-08 18:51:00,14.2,12.1,30.07,South,173,8.0,8.0,91,0.00,,,0.00,Wunderground v.1.15,2013-02-08 23:51:00,
2013-02-08 18:53:00,14.1,12.0,30.07,South,173,4.0,13.0,91,0.00,,,0.00,Wunderground v.1.15,2013-02-08 23:53:00,
2013-02-08 18:54:00,14.1,12.0,30.07,South,174,10.0,13.0,91,0.00,,,0.00,Wunderground v.1.15,2013-02-08 23:54:00,
2013-02-08 18:56:00,14.1,12.0,30.07,South,173,5.0,13.0,91,0.00,,,0.00,Wunderground v.1.15,2013-02-08 23:56:00,
2013-02-08 18:58:00,14.0,11.9,30.07,South,173,3.0,13.0,91,0.00,,,0.00,Wunderground v.1.15,2013-02-08 23:58:00,
2013-02-08 18:59:00,14.0,11.9,30.07,South,174,5.0,13.0,91,0.00,,,0.00,Wunderground v.1.15,2013-02-08 23:59:00,
2013-02-08 19:01:00,14.0,11.9,30.08,South,174,13.0,13.0,91,0.00,,,0.00,Wunderground v.1.15,2013-02-09 00:01:00,
2013-02-08 19:03:00,14.0,11.9,30.07,South,173,5.0,13.0,91,0.00,,,0.00,Wunderground v.1.15,2013-02-09 00:03:00,
2013-02-08 19:04:00,14.0,11.9,30.07,South,173,9.0,13.0,91,0.00,,,0.00,Wunderground v.1.15,2013-02-09 00:04:00,
2013-02-08 19:07:00,14.0,11.9,30.07,South,173,7.0,14.0,91,0.00,,,0.00,Wunderground v.1.15,2013-02-09 00:07:00,
2013-02-08 19:09:00,14.0,11.9,30.07,South,175,6.0,14.0,91,0.00,,,0.00,Wunderground v.1.15,2013-02-09 00:09:00,
2013-02-08 19:12:00,13.9,11.8,30.07,South,174,6.0,9.0,91,0.00,,,0.00,Wunderground v.1.15,2013-02-09 00:12:00,
2013-02-08 19:14:00,13.9,11.8,30.07,South,174,5.0,9.0,91,0.00,,,0.00,Wunderground v.1.15,2013-02-09 00:14:00,
2013-02-08 19:17:00,13.9,11.8,30.07,South,174,6.0,10.0,91,0.00,,,0.00,Wunderground v.1.15,2013-02-09 00:17:00,
2013-02-08 19:19:00,13.8,11.7,30.06,South,175,8.0,10.0,91,0.00,,,0.00,Wunderground v.1.15,2013-02-09 00:19:00,
2013-02-08 19:20:00,13.8,11.7,30.06,South,175,4.0,5.0,91,0.00,,,0.00,Wunderground v.1.15,2013-02-09 00:20:00,
2013-02-08 19:22:00,13.7,11.6,30.05,South,174,7.0,11.0,91,0.00,,,0.00,Wunderground v.1.15,2013-02-09 00:22:00,
2013-02-08 19:24:00,13.7,11.6,30.05,South,174,7.0,12.0,91,0.00,,,0.00,Wunderground v.1.15,2013-02-09 00:24:00,
2013-02-08 19:25:00,13.7,11.6,30.05,South,175,6.0,12.0,91,0.00,,,0.00,Wunderground v.1.15,2013-02-09 00:25:00,
2013-02-08 19:27:00,13.6,11.5,30.05,South,174,3.0,12.0,91,0.00,,,0.00,Wunderground v.1.15,2013-02-09 00:27:00,
2013-02-08 19:30:00,13.6,11.5,30.04,South,174,5.0,6.0,91,0.00,,,0.00,Wunderground v.1.15,2013-02-09 00:30:00,
2013-02-08 19:32:00,13.6,11.5,30.04,South,175,6.0,9.0,91,0.00,,,0.00,Wunderground v.1.15,2013-02-09 00:32:00,
2013-02-08 19:35:00,13.6,11.5,30.04,South,175,3.0,9.0,91,0.00,,,0.00,Wunderground v.1.15,2013-02-09 00:35:00,
2013-02-08 19:37:00,13.6,11.5,30.04,South,175,3.0,9.0,91,0.00,,,0.00,Wunderground v.1.15,2013-02-09 00:37:00,
2013-02-08 19:40:00,13.5,11.4,30.04,South,175,6.0,8.0,91,0.00,,,0.00,Wunderground v.1.15,2013-02-09 00:40:00,
2013-02-08 19:42:00,13.5,11.4,30.04,South,174,4.0,8.0,91,0.00,,,0.00,Wunderground v.1.15,2013-02-09 00:42:00,
2013-02-08 19:45:00,13.5,11.4,30.04,South,175,3.0,10.0,91,0.00,,,0.00,Wunderground v.1.15,2013-02-09 00:45:00,
2013-02-08 19:47:00,13.5,11.4,30.04,South,174,3.0,12.0,91,0.00,,,0.00,Wunderground v.1.15,2013-02-09 00:47:00,
2013-02-08 19:50:00,13.5,11.4,30.04,South,175,6.0,7.0,91,0.00,,,0.00,Wunderground v.1.15,2013-02-09 00:50:00,
2013-02-08 19:51:00,13.5,11.4,30.04,South,175,5.0,13.0,91,0.00,,,0.00,Wunderground v.1.15,2013-02-09 00:51:00,
2013-02-08 19:52:00,13.5,11.4,30.03,South,174,5.0,13.0,91,0.00,,,0.00,Wunderground v.1.15,2013-02-09 00:52:00,
2013-02-08 19:55:00,13.5,11.4,30.03,South,175,6.0,13.0,91,0.00,,,0.00,Wunderground v.1.15,2013-02-09 00:55:00,
2013-02-08 19:56:00,13.5,11.4,30.03,South,175,6.0,13.0,91,0.00,,,0.00,Wunderground v.1.15,2013-02-09 00:56:00,
2013-02-08 19:57:00,13.4,11.3,30.03,South,175,3.0,13.0,91,0.00,,,0.00,Wunderground v.1.15,2013-02-09 00:57:00,
2013-02-08 20:01:00,13.4,11.3,30.03,South,174,4.0,6.0,91,0.00,,,0.00,Wunderground v.1.15,2013-02-09 01:01:00,
2013-02-08 20:02:00,13.4,11.3,30.03,South,174,6.0,7.0,91,0.00,,,0.00,Wunderground v.1.15,2013-02-09 01:02:00,
2013-02-08 20:03:00,13.4,11.3,30.03,South,175,5.0,9.0,91,0.00,,,0.00,Wunderground v.1.15,2013-02-09 01:03:00,
2013-02-08 20:06:00,13.4,11.3,30.03,South,175,5.0,9.0,91,0.00,,,0.00,Wunderground v.1.15,2013-02-09 01:06:00,
2013-02-08 20:07:00,13.4,11.3,30.03,South,174,4.0,9.0,91,0.00,,,0.00,Wunderground v.1.15,2013-02-09 01:07:00,
2013-02-08 20:09:00,13.4,11.3,30.02,South,174,5.0,9.0,91,0.00,,,0.00,Wunderground v.1.15,2013-02-09 01:09:00,
2013-02-08 20:11:00,13.4,11.3,30.03,South,175,3.0,9.0,91,0.00,,,0.00,Wunderground v.1.15,2013-02-09 01:11:00,
2013-02-08 20:12:00,13.4,11.3,30.03,South,174,6.0,9.0,91,0.00,,,0.00,Wunderground v.1.15,2013-02-09 01:12:00,
2013-02-08 20:14:00,13.4,11.3,30.02,South,175,5.0,9.0,91,0.00,,,0.00,Wunderground v.1.15,2013-02-09 01:14:00,
2013-02-08 20:17:00,13.4,11.3,30.02,South,174,2.0,10.0,91,0.00,,,0.00,Wunderground v.1.15,2013-02-09 01:17:00,
2013-02-08 20:19:00,13.4,11.3,30.03,South,174,7.0,10.0,91,0.00,,,0.00,Wunderground v.1.15,2013-02-09 01:19:00,
2013-02-08 20:22:00,13.4,11.3,30.03,South,175,7.0,9.0,91,0.00,,,0.00,Wunderground v.1.15,2013-02-09 01:22:00,
2013-02-08 20:24:00,13.4,11.3,30.02,South,174,4.0,9.0,91,0.00,,,0.00,Wunderground v.1.15,2013-02-09 01:24:00,
2013-02-08 20:27:00,13.4,11.3,30.02,South,174,5.0,9.0,91,0.00,,,0.00,Wunderground v.1.15,2013-02-09 01:27:00,
2013-02-08 20:28:00,13.4,11.3,30.02,South,175,4.0,9.0,91,0.00,,,0.00,Wunderground v.1.15,2013-02-09 01:28:00,
2013-02-08 20:29:00,13.4,11.3,30.02,South,175,2.0,9.0,91,0.00,,,0.00,Wunderground v.1.15,2013-02-09 01:29:00,
2013-02-08 20:32:00,13.3,11.2,30.02,South,174,5.0,10.0,91,0.00,,,0.00,Wunderground v.1.15,2013-02-09 01:32:00,
2013-02-08 20:33:00,13.4,11.3,30.02,South,174,3.0,10.0,91,0.00,,,0.00,Wunderground v.1.15,2013-02-09 01:33:00,
2013-02-08 20:34:00,13.4,11.3,30.02,South,175,7.0,10.0,91,0.00,,,0.00,Wunderground v.1.15,2013-02-09 01:34:00,
2013-02-08 20:37:00,13.4,11.3,30.02,South,174,3.0,10.0,91,0.00,,,0.00,Wunderground v.1.15,2013-02-09 01:37:00,
2013-02-08 20:38:00,13.4,11.3,30.02,South,174,2.0,10.0,91,0.00,,,0.00,Wunderground v.1.15,2013-02-09 01:38:00,
2013-02-08 20:40:00,13.4,11.3,30.02,South,174,4.0,5.0,91,0.00,,,0.00,Wunderground v.1.15,2013-02-09 01:40:00,
2013-02-08 20:42:00,13.4,11.3,30.01,South,174,2.0,7.0,91,0.00,,,0.00,Wunderground v.1.15,2013-02-09 01:42:00,
2013-02-08 20:43:00,13.4,11.3,30.01,South,174,2.0,7.0,91,0.00,,,0.00,Wunderground v.1.15,2013-02-09 01:43:00,
2013-02-08 20:45:00,13.3,11.2,30.01,South,174,3.0,7.0,91,0.00,,,0.00,Wunderground v.1.15,2013-02-09 01:45:00,
2013-02-08 20:48:00,13.3,11.2,30.01,South,174,3.0,14.0,91,0.00,,,0.00,Wunderground v.1.15,2013-02-09 01:48:00,
2013-02-08 20:49:00,13.3,11.2,30.01,South,175,5.0,14.0,91,0.00,,,0.00,Wunderground v.1.15,2013-02-09 01:49:00,
2013-02-08 20:50:00,13.4,11.3,30.01,South,175,4.0,5.0,91,0.00,,,0.00,Wunderground v.1.15,2013-02-09 01:50:00,
2013-02-08 20:53:00,13.3,11.2,30.01,South,174,3.0,6.0,91,0.00,,,0.00,Wunderground v.1.15,2013-02-09 01:53:00,
2013-02-08 20:54:00,13.3,11.2,30.01,South,175,1.0,6.0,91,0.00,,,0.00,Wunderground v.1.15,2013-02-09 01:54:00,
2013-02-08 20:55:00,13.3,11.2,30.00,South,174,3.0,8.0,91,0.00,,,0.00,Wunderground v.1.15,2013-02-09 01:55:00,
2013-02-08 20:56:00,13.3,11.2,30.00,South,174,6.0,8.0,91,0.00,,,0.00,Wunderground v.1.15,2013-02-09 01:56:00,
2013-02-08 20:58:00,13.3,11.2,30.00,South,174,3.0,8.0,91,0.00,,,0.00,Wunderground v.1.15,2013-02-09 01:58:00,
2013-02-08 20:59:00,13.3,11.2,30.00,South,174,2.0,8.0,91,0.00,,,0.00,Wunderground v.1.15,2013-02-09 01:59:00,
2013-02-08 21:02:00,13.3,11.2,30.00,South,174,4.0,10.0,91,0.00,,,0.00,Wunderground v.1.15,2013-02-09 02:02:00,
2013-02-08 21:03:00,13.3,11.2,30.00,South,175,6.0,10.0,91,0.00,,,0.00,Wunderground v.1.15,2013-02-09 02:03:00,
2013-02-08 21:04:00,13.3,11.2,30.00,South,175,4.0,10.0,91,0.00,,,0.00,Wunderground v.1.15,2013-02-09 02:04:00,
2013-02-08 21:07:00,13.3,11.2,30.00,South,175,3.0,10.0,91,0.00,,,0.00,Wunderground v.1.15,2013-02-09 02:07:00,
2013-02-08 21:08:00,13.3,11.2,29.99,South,174,3.0,10.0,91,0.00,,,0.00,Wunderground v.1.15,2013-02-09 02:08:00,
2013-02-08 21:09:00,13.3,11.2,29.99,South,174,7.0,10.0,91,0.00,,,0.00,Wunderground v.1.15,2013-02-09 02:09:00,
2013-02-08 21:12:00,13.3,11.2,30.00,South,175,11.0,14.0,91,0.00,,,0.00,Wunderground v.1.15,2013-02-09 02:12:00,
2013-02-08 21:14:00,13.3,11.2,29.99,South,175,1.0,14.0,91,0.00,,,0.00,Wunderground v.1.15,2013-02-09 02:14:00,
2013-02-08 21:17:00,13.3,11.2,29.99,South,174,5.0,14.0,91,0.00,,,0.00,Wunderground v.1.15,2013-02-09 02:17:00,
2013-02-08 21:18:00,13.3,11.2,29.99,South,175,1.0,14.0,91,0.00,,,0.00,Wunderground v.1.15,2013-02-09 02:18:00,
2013-02-08 21:19:00,13.3,11.2,29.99,South,174,3.0,14.0,91,0.00,,,0.00,Wunderground v.1.15,2013-02-09 02:19:00,
2013-02-08 21:22:00,13.4,11.5,29.99,South,174,4.0,11.0,92,0.00,,,0.00,Wunderground v.1.15,2013-02-09 02:22:00,
2013-02-08 21:23:00,13.4,11.5,29.99,South,174,4.0,11.0,92,0.00,,,0.00,Wunderground v.1.15,2013-02-09 02:23:00,
2013-02-08 21:24:00,13.4,11.3,29.99,South,174,7.0,11.0,91,0.00,,,0.00,Wunderground v.1.15,2013-02-09 02:24:00,
2013-02-08 21:27:00,13.4,11.3,29.99,South,175,4.0,15.0,91,0.00,,,0.00,Wunderground v.1.15,2013-02-09 02:27:00,
2013-02-08 21:28:00,13.4,11.3,29.99,South,175,7.0,15.0,91,0.00,,,0.00,Wunderground v.1.15,2013-02-09 02:28:00,
2013-02-08 21:29:00,13.4,11.3,29.98,South,174,3.0,15.0,91,0.00,,,0.00,Wunderground v.1.15,2013-02-09 02:29:00,
2013-02-08 21:33:00,13.5,11.4,29.98,South,175,1.0,6.0,91,0.00,,,0.00,Wunderground v.1.15,2013-02-09 02:33:00,
2013-02-08 21:34:00,13.5,11.6,29.98,South,175,3.0,6.0,92,0.00,,,0.00,Wunderground v.1.15,2013-02-09 02:34:00,
2013-02-08 21:38:00,13.5,11.6,29.97,South,175,2.0,6.0,92,0.00,,,0.00,Wunderground v.1.15,2013-02-09 02:38:00,
2013-02-08 21:39:00,13.5,11.6,29.97,South,174,6.0,6.0,92,0.00,,,0.00,Wunderground v.1.15,2013-02-09 02:39:00,
2013-02-08 21:40:00,13.5,11.6,29.97,South,174,3.0,3.0,92,0.00,,,0.00,Wunderground v.1.15,2013-02-09 02:40:00,
2013-02-08 21:43:00,13.6,11.7,29.97,South,175,2.0,10.0,92,0.00,,,0.00,Wunderground v.1.15,2013-02-09 02:43:00,
2013-02-08 21:45:00,13.6,11.7,29.97,South,174,8.0,10.0,92,0.00,,,0.00,Wunderground v.1.15,2013-02-09 02:45:00,
2013-02-08 21:48:00,13.6,11.7,29.97,South,174,3.0,10.0,92,0.00,,,0.00,Wunderground v.1.15,2013-02-09 02:48:00,
2013-02-08 21:50:00,13.6,11.5,29.97,South,175,6.0,7.0,91,0.00,,,0.00,Wunderground v.1.15,2013-02-09 02:50:00,
2013-02-08 21:53:00,13.6,11.5,29.96,South,174,4.0,15.0,91,0.00,,,0.00,Wunderground v.1.15,2013-02-09 02:53:00,
2013-02-08 21:54:00,13.6,11.5,29.96,South,175,4.0,15.0,91,0.00,,,0.00,Wunderground v.1.15,2013-02-09 02:54:00,
2013-02-08 21:55:00,13.6,11.5,29.96,South,175,8.0,15.0,91,0.00,,,0.00,Wunderground v.1.15,2013-02-09 02:55:00,
2013-02-08 21:59:00,13.6,11.5,29.95,South,175,3.0,15.0,91,0.00,,,0.00,Wunderground v.1.15,2013-02-09 02:59:00,
2013-02-08 22:00:00,13.6,11.5,29.95,South,174,15.0,15.0,91,0.00,,,0.00,Wunderground v.1.15,2013-02-09 03:00:00,
2013-02-08 22:04:00,13.6,11.5,29.95,South,175,5.0,15.0,91,0.00,,,0.00,Wunderground v.1.15,2013-02-09 03:04:00,
2013-02-08 22:05:00,13.6,11.5,29.95,South,175,4.0,15.0,91,0.00,,,0.00,Wunderground v.1.15,2013-02-09 03:05:00,
2013-02-08 22:09:00,13.6,11.5,29.95,South,175,5.0,15.0,91,0.00,,,0.00,Wunderground v.1.15,2013-02-09 03:09:00,
2013-02-08 22:10:00,13.7,11.6,29.95,South,174,5.0,7.0,91,0.00,,,0.00,Wunderground v.1.15,2013-02-09 03:10:00,
2013-02-08 22:14:00,13.7,11.8,29.94,South,175,4.0,7.0,92,0.00,,,0.00,Wunderground v.1.15,2013-02-09 03:14:00,
2013-02-08 22:15:00,13.7,11.8,29.94,South,174,3.0,11.0,92,0.00,,,0.00,Wunderground v.1.15,2013-02-09 03:15:00,
2013-02-08 22:19:00,13.7,11.6,29.94,South,174,4.0,11.0,91,0.00,,,0.00,Wunderground v.1.15,2013-02-09 03:19:00,
2013-02-08 22:21:00,13.7,11.8,29.94,South,174,7.0,9.0,92,0.00,,,0.00,Wunderground v.1.15,2013-02-09 03:21:00,
2013-02-08 22:24:00,13.7,11.8,29.93,South,175,3.0,10.0,92,0.00,,,0.00,Wunderground v.1.15,2013-02-09 03:24:00,
2013-02-08 22:26:00,13.7,11.8,29.94,South,174,10.0,10.0,92,0.00,,,0.00,Wunderground v.1.15,2013-02-09 03:26:00,
2013-02-08 22:29:00,13.7,11.8,29.93,South,175,2.0,10.0,92,0.00,,,0.00,Wunderground v.1.15,2013-02-09 03:29:00,
2013-02-08 22:31:00,13.7,11.6,29.93,South,175,5.0,10.0,91,0.00,,,0.00,Wunderground v.1.15,2013-02-09 03:31:00,
2013-02-08 22:34:00,13.7,11.8,29.93,South,174,6.0,14.0,92,0.00,,,0.00,Wunderground v.1.15,2013-02-09 03:34:00,
2013-02-08 22:36:00,13.7,11.8,29.93,South,175,3.0,14.0,92,0.00,,,0.00,Wunderground v.1.15,2013-02-09 03:36:00,
2013-02-08 22:39:00,13.7,11.8,29.93,South,175,3.0,14.0,92,0.00,,,0.00,Wunderground v.1.15,2013-02-09 03:39:00,
2013-02-08 22:41:00,13.7,11.8,29.93,South,174,6.0,7.0,92,0.00,,,0.00,Wunderground v.1.15,2013-02-09 03:41:00,
2013-02-08 22:44:00,13.7,11.8,29.93,South,174,2.0,7.0,92,0.00,,,0.00,Wunderground v.1.15,2013-02-09 03:44:00,
2013-02-08 22:45:00,13.7,11.8,29.93,South,175,2.0,7.0,92,0.00,,,0.00,Wunderground v.1.15,2013-02-09 03:45:00,
2013-02-08 22:47:00,13.7,11.8,29.92,South,174,5.0,7.0,92,0.00,,,0.00,Wunderground v.1.15,2013-02-09 03:47:00,
2013-02-08 22:49:00,13.7,11.8,29.92,South,174,2.0,8.0,92,0.00,,,0.00,Wunderground v.1.15,2013-02-09 03:49:00,
2013-02-08 22:50:00,13.7,11.8,29.92,South,175,5.0,5.0,92,0.00,,,0.00,Wunderground v.1.15,2013-02-09 03:50:00,
2013-02-08 22:52:00,13.7,11.8,29.91,South,175,3.0,7.0,92,0.00,,,0.00,Wunderground v.1.15,2013-02-09 03:52:00,
2013-02-08 22:54:00,13.8,11.9,29.91,South,174,10.0,11.0,92,0.00,,,0.00,Wunderground v.1.15,2013-02-09 03:54:00,
2013-02-08 22:55:00,13.8,11.9,29.91,South,174,7.0,11.0,92,0.00,,,0.00,Wunderground v.1.15,2013-02-09 03:55:00,
2013-02-08 22:57:00,13.8,11.9,29.90,South,174,3.0,11.0,92,0.00,,,0.00,Wunderground v.1.15,2013-02-09 03:57:00,
2013-02-08 22:59:00,13.8,11.9,29.90,South,174,10.0,11.0,92,0.00,,,0.00,Wunderground v.1.15,2013-02-09 03:59:00,
2013-02-08 23:02:00,13.9,12.0,29.90,South,174,4.0,6.0,92,0.00,,,0.00,Wunderground v.1.15,2013-02-09 04:02:00,
2013-02-08 23:04:00,13.8,11.9,29.90,South,174,4.0,8.0,92,0.00,,,0.00,Wunderground v.1.15,2013-02-09 04:04:00,
2013-02-08 23:07:00,13.8,11.9,29.90,South,173,4.0,8.0,92,0.00,,,0.00,Wunderground v.1.15,2013-02-09 04:07:00,
2013-02-08 23:10:00,13.8,11.9,29.90,South,173,6.0,7.0,92,0.00,,,0.00,Wunderground v.1.15,2013-02-09 04:10:00,
2013-02-08 23:12:00,13.8,11.9,29.90,South,174,4.0,8.0,92,0.00,,,0.00,Wunderground v.1.15,2013-02-09 04:12:00,
2013-02-08 23:15:00,13.8,11.9,29.90,South,173,10.0,10.0,92,0.00,,,0.00,Wunderground v.1.15,2013-02-09 04:15:00,
2013-02-08 23:17:00,13.7,11.8,29.90,South,174,11.0,14.0,92,0.00,,,0.00,Wunderground v.1.15,2013-02-09 04:17:00,
2013-02-08 23:20:00,13.7,11.8,29.89,South,173,3.0,6.0,92,0.00,,,0.00,Wunderground v.1.15,2013-02-09 04:20:00,
2013-02-08 23:22:00,13.7,11.8,29.90,South,173,4.0,6.0,92,0.00,,,0.00,Wunderground v.1.15,2013-02-09 04:22:00,
2013-02-08 23:23:00,13.7,11.8,29.90,South,173,5.0,6.0,92,0.00,,,0.00,Wunderground v.1.15,2013-02-09 04:23:00,
2013-02-08 23:25:00,13.6,11.7,29.89,South,174,2.0,9.0,92,0.00,,,0.00,Wunderground v.1.15,2013-02-09 04:25:00,
2013-02-08 23:27:00,13.6,11.7,29.89,South,173,3.0,9.0,92,0.00,,,0.00,Wunderground v.1.15,2013-02-09 04:27:00,
2013-02-08 23:28:00,13.6,11.7,29.89,South,174,6.0,9.0,92,0.00,,,0.00,Wunderground v.1.15,2013-02-09 04:28:00,
2013-02-08 23:30:00,13.6,11.7,29.89,South,173,3.0,6.0,92,0.00,,,0.00,Wunderground v.1.15,2013-02-09 04:30:00,
2013-02-08 23:32:00,13.5,11.6,29.88,South,173,5.0,9.0,92,0.00,,,0.00,Wunderground v.1.15,2013-02-09 04:32:00,
2013-02-08 23:33:00,13.6,11.7,29.88,South,174,4.0,9.0,92,0.00,,,0.00,Wunderground v.1.15,2013-02-09 04:33:00,
2013-02-08 23:35:00,13.5,11.6,29.88,South,173,6.0,9.0,92,0.00,,,0.00,Wunderground v.1.15,2013-02-09 04:35:00,
2013-02-08 23:37:00,13.4,11.5,29.88,South,173,1.0,9.0,92,0.00,,,0.00,Wunderground v.1.15,2013-02-09 04:37:00,
2013-02-08 23:38:00,13.4,11.5,29.88,South,173,3.0,9.0,92,0.00,,,0.00,Wunderground v.1.15,2013-02-09 04:38:00,
2013-02-08 23:41:00,13.4,11.5,29.87,South,173,2.0,7.0,92,0.00,,,0.00,Wunderground v.1.15,2013-02-09 04:41:00,
2013-02-08 23:43:00,13.4,11.5,29.88,South,173,0.0,8.0,92,0.00,,,0.00,Wunderground v.1.15,2013-02-09 04:43:00,
2013-02-08 23:46:00,13.3,11.4,29.88,South,174,3.0,8.0,92,0.00,,,0.00,Wunderground v.1.15,2013-02-09 04:46:00,
2013-02-08 23:48:00,13.3,11.4,29.88,South,173,0.0,8.0,92,0.00,,,0.00,Wunderground v.1.15,2013-02-09 04:48:00,
2013-02-08 23:49:00,13.3,11.4,29.88,South,174,4.0,8.0,92,0.00,,,0.00,Wunderground v.1.15,2013-02-09 04:49:00,
2013-02-08 23:51:00,13.3,11.4,29.88,South,173,3.0,4.0,92,0.00,,,0.00,Wunderground v.1.15,2013-02-09 04:51:00,
2013-02-08 23:53:00,13.3,11.4,29.88,South,174,3.0,4.0,92,0.00,,,0.00,Wunderground v.1.15,2013-02-09 04:53:00,
2013-02-08 23:54:00,13.3,11.4,29.88,South,174,1.0,4.0,92,0.00,,,0.00,Wunderground v.1.15,2013-02-09 04:54:00,
2013-02-08 23:56:00,13.3,11.4,29.88,South,173,4.0,7.0,92,0.00,,,0.00,Wunderground v.1.15,2013-02-09 04:56:00,
2013-02-08 23:58:00,13.3,11.4,29.88,South,174,2.0,7.0,92,0.00,,,0.00,Wunderground v.1.15,2013-02-09 04:58:00,
2013-02-08 23:59:00,13.3,11.4,29.88,South,173,1.0,7.0,92,0.00,,,0.00,Wunderground v.1.15,2013-02-09 04:59:00,